Time,TemperatureF,DewpointF,PressureIn,WindDirection,WindDirectionDegrees,WindSpeedMPH,WindSpeedGustMPH,Humidity,HourlyPrecipIn,Conditions,Clouds,dailyrainin,SolarRadiationWatts/m^2,SoftwareType,DateUTC
2013-09-07 00:01:00,71.7,63.4,29.83,SSE,165,2.0,2.0,75,0.00,,,0.00,0,Wunderground v.1.15,2013-09-07 05:01:00,
2013-09-07 00:02:00,71.6,63.3,29.83,SSE,166,1.0,2.0,75,0.00,,,0.00,0,Wunderground v.1.15,2013-09-07 05:02:00,
2013-09-07 00:03:00,71.7,63.4,29.83,SSE,165,0.0,2.0,75,0.00,,,0.00,0,Wunderground v.1.15,2013-09-07 05:03:00,
2013-09-07 00:05:00,71.6,63.3,29.84,SSE,165,2.0,2.0,75,0.00,,,0.00,0,Wunderground v.1.15,2013-09-07 05:05:00,
2013-09-07 00:10:00,71.5,63.2,29.84,SSE,165,1.0,1.0,75,0.00,,,0.00,0,Wunderground v.1.15,2013-09-07 05:10:00,
2013-09-07 00:11:00,71.5,63.2,29.84,SSE,166,2.0,2.0,75,0.00,,,0.00,0,Wunderground v.1.15,2013-09-07 05:11:00,
2013-09-07 00:13:00,71.5,63.2,29.84,SSE,167,1.0,2.0,75,0.00,,,0.00,0,Wunderground v.1.15,2013-09-07 05:13:00,
2013-09-07 00:16:00,71.6,63.3,29.84,SSE,163,3.0,3.0,75,0.00,,,0.00,0,Wunderground v.1.15,2013-09-07 05:16:00,
2013-09-07 00:17:00,71.6,63.3,29.84,SSE,163,2.0,3.0,75,0.00,,,0.00,0,Wunderground v.1.15,2013-09-07 05:17:00,
2013-09-07 00:18:00,71.6,63.3,29.84,SSE,164,0.0,3.0,75,0.00,,,0.00,0,Wunderground v.1.15,2013-09-07 05:18:00,
2013-09-07 00:19:00,71.6,63.3,29.84,SSE,166,0.0,3.0,75,0.00,,,0.00,0,Wunderground v.1.15,2013-09-07 05:19:00,
2013-09-07 00:20:00,71.6,63.3,29.84,SSE,166,1.0,1.0,75,0.00,,,0.00,0,Wunderground v.1.15,2013-09-07 05:20:00,
2013-09-07 00:24:00,71.6,63.3,29.84,SSE,165,1.0,1.0,75,0.00,,,0.00,0,Wunderground v.1.15,2013-09-07 05:24:00,
2013-09-07 00:26:00,71.5,63.2,29.84,South,171,1.0,1.0,75,0.00,,,0.00,0,Wunderground v.1.15,2013-09-07 05:26:00,
2013-09-07 00:27:00,71.5,63.2,29.84,South,169,0.0,1.0,75,0.00,,,0.00,0,Wunderground v.1.15,2013-09-07 05:27:00,
2013-09-07 00:30:00,71.4,63.4,29.84,South,169,1.0,1.0,76,0.00,,,0.00,0,Wunderground v.1.15,2013-09-07 05:30:00,
2013-09-07 00:31:00,71.4,63.4,29.84,South,169,0.0,1.0,76,0.00,,,0.00,0,Wunderground v.1.15,2013-09-07 05:31:00,
2013-09-07 00:34:00,71.2,63.2,29.84,South,169,1.0,1.0,76,0.00,,,0.00,0,Wunderground v.1.15,2013-09-07 05:34:00,
2013-09-07 00:35:00,71.1,63.1,29.84,South,169,0.0,1.0,76,0.00,,,0.00,0,Wunderground v.1.15,2013-09-07 05:35:00,
2013-09-07 00:37:00,71.0,63.4,29.84,South,169,1.0,1.0,77,0.00,,,0.00,0,Wunderground v.1.15,2013-09-07 05:37:00,
2013-09-07 00:38:00,71.0,63.4,29.84,South,169,2.0,2.0,77,0.00,,,0.00,0,Wunderground v.1.15,2013-09-07 05:38:00,
2013-09-07 00:43:00,70.9,63.3,29.84,South,169,1.0,2.0,77,0.00,,,0.00,0,Wunderground v.1.15,2013-09-07 05:43:00,
2013-09-07 00:44:00,70.9,63.3,29.84,South,169,2.0,2.0,77,0.00,,,0.00,0,Wunderground v.1.15,2013-09-07 05:44:00,
2013-09-07 00:46:00,70.9,63.3,29.84,SSE,168,0.0,2.0,77,0.00,,,0.00,0,Wunderground v.1.15,2013-09-07 05:46:00,
2013-09-07 00:47:00,70.9,63.3,29.84,South,179,0.0,2.0,77,0.00,,,0.00,0,Wunderground v.1.15,2013-09-07 05:47:00,
2013-09-07 00:48:00,70.9,63.3,29.84,South,175,0.0,2.0,77,0.00,,,0.00,0,Wunderground v.1.15,2013-09-07 05:48:00,
2013-09-07 00:50:00,70.8,63.2,29.84,South,173,1.0,1.0,77,0.00,,,0.00,0,Wunderground v.1.15,2013-09-07 05:50:00,
2013-09-07 00:54:00,70.7,63.1,29.84,South,169,2.0,3.0,77,0.00,,,0.00,0,Wunderground v.1.15,2013-09-07 05:54:00,
2013-09-07 00:55:00,70.7,63.1,29.84,South,169,0.0,3.0,77,0.00,,,0.00,0,Wunderground v.1.15,2013-09-07 05:55:00,
2013-09-07 00:56:00,70.7,63.5,29.84,South,173,2.0,3.0,78,0.00,,,0.00,0,Wunderground v.1.15,2013-09-07 05:56:00,
2013-09-07 00:57:00,70.7,63.5,29.84,South,173,1.0,3.0,78,0.00,,,0.00,0,Wunderground v.1.15,2013-09-07 05:57:00,
2013-09-07 00:59:00,70.7,63.5,29.84,SSE,166,3.0,3.0,78,0.00,,,0.00,0,Wunderground v.1.15,2013-09-07 05:59:00,
2013-09-07 01:01:00,70.6,63.4,29.84,SSE,165,2.0,2.0,78,0.00,,,0.00,0,Wunderground v.1.15,2013-09-07 06:01:00,
2013-09-07 01:03:00,70.6,63.4,29.84,SSE,164,0.0,3.0,78,0.00,,,0.00,0,Wunderground v.1.15,2013-09-07 06:03:00,
2013-09-07 01:05:00,70.6,63.4,29.84,South,180,1.0,3.0,78,0.00,,,0.00,0,Wunderground v.1.15,2013-09-07 06:05:00,
2013-09-07 01:06:00,70.6,63.4,29.84,South,179,2.0,3.0,78,0.00,,,0.00,0,Wunderground v.1.15,2013-09-07 06:06:00,
2013-09-07 01:10:00,70.6,63.4,29.84,South,178,0.0,3.0,78,0.00,,,0.00,0,Wunderground v.1.15,2013-09-07 06:10:00,
2013-09-07 01:11:00,70.6,63.4,29.84,South,177,0.0,1.0,78,0.00,,,0.00,0,Wunderground v.1.15,2013-09-07 06:11:00,
2013-09-07 01:17:00,70.6,63.4,29.84,SSE,162,2.0,2.0,78,0.00,,,0.00,0,Wunderground v.1.15,2013-09-07 06:17:00,
2013-09-07 01:18:00,70.6,63.4,29.84,SSE,163,0.0,2.0,78,0.00,,,0.00,0,Wunderground v.1.15,2013-09-07 06:18:00,
2013-09-07 01:20:00,70.6,63.4,29.84,SSE,163,0.0,2.0,78,0.00,,,0.00,0,Wunderground v.1.15,2013-09-07 06:20:00,
2013-09-07 01:22:00,70.5,63.3,29.84,SSE,163,0.0,1.0,78,0.00,,,0.00,0,Wunderground v.1.15,2013-09-07 06:22:00,
2013-09-07 01:25:00,70.5,63.7,29.84,SSE,163,0.0,1.0,79,0.00,,,0.00,0,Wunderground v.1.15,2013-09-07 06:25:00,
2013-09-07 01:27:00,70.4,63.6,29.84,SSE,163,0.0,1.0,79,0.00,,,0.00,0,Wunderground v.1.15,2013-09-07 06:27:00,
2013-09-07 01:29:00,70.4,63.6,29.84,SSE,163,0.0,1.0,79,0.00,,,0.00,0,Wunderground v.1.15,2013-09-07 06:29:00,
2013-09-07 01:31:00,70.4,63.6,29.84,SSE,164,0.0,0.0,79,0.00,,,0.00,0,Wunderground v.1.15,2013-09-07 06:31:00,
2013-09-07 01:32:00,70.4,63.6,29.84,SSE,167,2.0,2.0,79,0.00,,,0.00,0,Wunderground v.1.15,2013-09-07 06:32:00,
2013-09-07 01:35:00,70.4,63.6,29.84,South,173,0.0,2.0,79,0.00,,,0.00,0,Wunderground v.1.15,2013-09-07 06:35:00,
2013-09-07 01:37:00,70.4,63.6,29.84,South,172,0.0,2.0,79,0.00,,,0.00,0,Wunderground v.1.15,2013-09-07 06:37:00,
2013-09-07 01:38:00,70.5,63.7,29.84,South,179,2.0,2.0,79,0.00,,,0.00,0,Wunderground v.1.15,2013-09-07 06:38:00,
2013-09-07 01:42:00,70.5,63.7,29.84,South,182,2.0,3.0,79,0.00,,,0.00,0,Wunderground v.1.15,2013-09-07 06:42:00,
2013-09-07 01:44:00,70.6,63.8,29.84,South,182,2.0,3.0,79,0.00,,,0.00,0,Wunderground v.1.15,2013-09-07 06:44:00,
2013-09-07 01:45:00,70.6,63.8,29.84,South,181,2.0,3.0,79,0.00,,,0.00,0,Wunderground v.1.15,2013-09-07 06:45:00,
2013-09-07 01:46:00,70.6,63.8,29.84,South,181,0.0,3.0,79,0.00,,,0.00,0,Wunderground v.1.15,2013-09-07 06:46:00,
2013-09-07 01:47:00,70.6,63.8,29.84,South,182,1.0,3.0,79,0.00,,,0.00,0,Wunderground v.1.15,2013-09-07 06:47:00,
2013-09-07 01:52:00,70.7,63.9,29.84,South,179,0.0,1.0,79,0.00,,,0.00,0,Wunderground v.1.15,2013-09-07 06:52:00,
2013-09-07 01:53:00,70.7,63.9,29.84,South,178,0.0,1.0,79,0.00,,,0.00,0,Wunderground v.1.15,2013-09-07 06:53:00,
2013-09-07 01:54:00,70.7,63.9,29.84,South,175,0.0,1.0,79,0.00,,,0.00,0,Wunderground v.1.15,2013-09-07 06:54:00,
2013-09-07 01:55:00,70.7,63.9,29.84,South,175,1.0,1.0,79,0.00,,,0.00,0,Wunderground v.1.15,2013-09-07 06:55:00,
2013-09-07 01:57:00,70.7,63.9,29.84,South,180,0.0,1.0,79,0.00,,,0.00,0,Wunderground v.1.15,2013-09-07 06:57:00,
2013-09-07 02:00:00,70.7,63.9,29.84,South,177,0.0,1.0,79,0.00,,,0.00,0,Wunderground v.1.15,2013-09-07 07:00:00,
2013-09-07 02:01:00,70.7,63.9,29.84,South,175,0.0,2.0,79,0.00,,,0.00,0,Wunderground v.1.15,2013-09-07 07:01:00,
2013-09-07 02:03:00,70.6,63.8,29.84,South,189,0.0,4.0,79,0.00,,,0.00,0,Wunderground v.1.15,2013-09-07 07:03:00,
2013-09-07 02:05:00,70.6,63.8,29.84,South,188,1.0,4.0,79,0.00,,,0.00,0,Wunderground v.1.15,2013-09-07 07:05:00,
2013-09-07 02:06:00,70.6,63.8,29.84,South,188,0.0,4.0,79,0.00,,,0.00,0,Wunderground v.1.15,2013-09-07 07:06:00,
2013-09-07 02:07:00,70.6,63.8,29.84,South,188,0.0,4.0,79,0.00,,,0.00,0,Wunderground v.1.15,2013-09-07 07:07:00,
2013-09-07 02:09:00,70.6,63.8,29.84,South,188,0.0,4.0,79,0.00,,,0.00,0,Wunderground v.1.15,2013-09-07 07:09:00,
2013-09-07 02:12:00,70.5,63.7,29.84,South,188,0.0,1.0,79,0.00,,,0.00,0,Wunderground v.1.15,2013-09-07 07:12:00,
2013-09-07 02:13:00,70.5,63.7,29.84,South,188,0.0,1.0,79,0.00,,,0.00,0,Wunderground v.1.15,2013-09-07 07:13:00,
2013-09-07 02:17:00,70.6,63.8,29.84,South,184,0.0,1.0,79,0.00,,,0.00,0,Wunderground v.1.15,2013-09-07 07:17:00,
2013-09-07 02:18:00,70.5,63.7,29.84,South,184,0.0,1.0,79,0.00,,,0.00,0,Wunderground v.1.15,2013-09-07 07:18:00,
2013-09-07 02:19:00,70.6,64.1,29.84,South,184,0.0,1.0,80,0.00,,,0.00,0,Wunderground v.1.15,2013-09-07 07:19:00,
2013-09-07 02:21:00,70.6,64.1,29.84,South,184,0.0,0.0,80,0.00,,,0.00,0,Wunderground v.1.15,2013-09-07 07:21:00,
2013-09-07 02:24:00,70.5,64.0,29.84,South,184,0.0,0.0,80,0.00,,,0.00,0,Wunderground v.1.15,2013-09-07 07:24:00,
2013-09-07 02:25:00,70.5,64.0,29.84,South,184,0.0,0.0,80,0.00,,,0.00,0,Wunderground v.1.15,2013-09-07 07:25:00,
2013-09-07 02:26:00,70.5,64.0,29.84,South,184,0.0,0.0,80,0.00,,,0.00,0,Wunderground v.1.15,2013-09-07 07:26:00,
2013-09-07 02:30:00,70.5,64.0,29.84,South,184,0.0,0.0,80,0.00,,,0.00,0,Wunderground v.1.15,2013-09-07 07:30:00,
2013-09-07 02:32:00,70.5,64.0,29.84,South,184,0.0,0.0,80,0.00,,,0.00,0,Wunderground v.1.15,2013-09-07 07:32:00,
2013-09-07 02:33:00,70.5,64.0,29.84,South,184,0.0,0.0,80,0.00,,,0.00,0,Wunderground v.1.15,2013-09-07 07:33:00,
2013-09-07 02:35:00,70.4,63.9,29.84,South,184,0.0,0.0,80,0.00,,,0.00,0,Wunderground v.1.15,2013-09-07 07:35:00,
2013-09-07 02:36:00,70.5,64.0,29.84,South,184,0.0,0.0,80,0.00,,,0.00,0,Wunderground v.1.15,2013-09-07 07:36:00,
2013-09-07 02:37:00,70.5,64.0,29.84,South,184,0.0,0.0,80,0.00,,,0.00,0,Wunderground v.1.15,2013-09-07 07:37:00,
2013-09-07 02:38:00,70.5,64.0,29.84,South,184,0.0,0.0,80,0.00,,,0.00,0,Wunderground v.1.15,2013-09-07 07:38:00,
2013-09-07 02:40:00,70.5,64.4,29.84,South,184,0.0,0.0,81,0.00,,,0.00,0,Wunderground v.1.15,2013-09-07 07:40:00,
2013-09-07 02:41:00,70.5,64.4,29.84,South,184,0.0,0.0,81,0.00,,,0.00,0,Wunderground v.1.15,2013-09-07 07:41:00,
2013-09-07 02:42:00,70.4,64.3,29.84,South,184,0.0,0.0,81,0.00,,,0.00,0,Wunderground v.1.15,2013-09-07 07:42:00,
2013-09-07 02:44:00,70.4,64.3,29.84,South,184,0.0,0.0,81,0.00,,,0.00,0,Wunderground v.1.15,2013-09-07 07:44:00,
2013-09-07 02:45:00,70.4,64.3,29.84,South,184,0.0,0.0,81,0.00,,,0.00,0,Wunderground v.1.15,2013-09-07 07:45:00,
2013-09-07 02:46:00,70.4,64.3,29.84,South,184,0.0,0.0,81,0.00,,,0.00,0,Wunderground v.1.15,2013-09-07 07:46:00,
2013-09-07 02:50:00,70.4,64.3,29.85,South,184,0.0,0.0,81,0.00,,,0.00,0,Wunderground v.1.15,2013-09-07 07:50:00,
2013-09-07 02:51:00,70.4,64.3,29.85,South,184,0.0,0.0,81,0.00,,,0.00,0,Wunderground v.1.15,2013-09-07 07:51:00,
2013-09-07 02:52:00,70.5,64.4,29.85,South,184,0.0,0.0,81,0.00,,,0.00,0,Wunderground v.1.15,2013-09-07 07:52:00,
2013-09-07 02:53:00,70.4,64.3,29.85,South,184,0.0,0.0,81,0.00,,,0.00,0,Wunderground v.1.15,2013-09-07 07:53:00,
2013-09-07 02:55:00,70.5,64.4,29.85,South,184,0.0,0.0,81,0.00,,,0.00,0,Wunderground v.1.15,2013-09-07 07:55:00,
2013-09-07 02:56:00,70.5,64.4,29.85,South,184,0.0,0.0,81,0.00,,,0.00,0,Wunderground v.1.15,2013-09-07 07:56:00,
2013-09-07 02:57:00,70.5,64.4,29.85,South,184,0.0,0.0,81,0.00,,,0.00,0,Wunderground v.1.15,2013-09-07 07:57:00,
2013-09-07 02:58:00,70.6,64.5,29.84,South,184,0.0,0.0,81,0.00,,,0.00,0,Wunderground v.1.15,2013-09-07 07:58:00,
2013-09-07 02:59:00,70.6,64.5,29.84,South,184,0.0,0.0,81,0.00,,,0.00,0,Wunderground v.1.15,2013-09-07 07:59:00,
2013-09-07 03:00:00,70.7,64.6,29.84,South,184,0.0,0.0,81,0.00,,,0.00,0,Wunderground v.1.15,2013-09-07 08:00:00,
2013-09-07 03:02:00,70.7,64.6,29.84,South,184,0.0,0.0,81,0.00,,,0.00,0,Wunderground v.1.15,2013-09-07 08:02:00,
2013-09-07 03:04:00,70.8,64.7,29.84,South,184,0.0,0.0,81,0.00,,,0.00,0,Wunderground v.1.15,2013-09-07 08:04:00,
2013-09-07 03:06:00,70.9,64.8,29.84,South,184,0.0,0.0,81,0.00,,,0.00,0,Wunderground v.1.15,2013-09-07 08:06:00,
2013-09-07 03:09:00,70.9,64.4,29.84,South,184,0.0,0.0,80,0.00,,,0.00,0,Wunderground v.1.15,2013-09-07 08:09:00,
2013-09-07 03:10:00,71.0,64.5,29.84,South,184,0.0,0.0,80,0.00,,,0.00,0,Wunderground v.1.15,2013-09-07 08:10:00,
2013-09-07 03:11:00,71.0,64.5,29.84,South,184,0.0,0.0,80,0.00,,,0.00,0,Wunderground v.1.15,2013-09-07 08:11:00,
2013-09-07 03:12:00,71.0,64.5,29.84,South,184,0.0,0.0,80,0.00,,,0.00,0,Wunderground v.1.15,2013-09-07 08:12:00,
2013-09-07 03:15:00,71.0,64.5,29.84,South,180,1.0,1.0,80,0.00,,,0.00,0,Wunderground v.1.15,2013-09-07 08:15:00,
2013-09-07 03:17:00,71.0,64.9,29.83,SSE,165,4.0,4.0,81,0.00,,,0.00,0,Wunderground v.1.15,2013-09-07 08:17:00,
2013-09-07 03:18:00,71.0,64.9,29.83,SSE,157,4.0,4.0,81,0.00,,,0.00,0,Wunderground v.1.15,2013-09-07 08:18:00,
2013-09-07 03:20:00,71.0,64.9,29.83,SSE,165,3.0,3.0,81,0.00,,,0.00,0,Wunderground v.1.15,2013-09-07 08:20:00,
2013-09-07 03:21:00,71.0,64.9,29.83,SSE,157,0.0,4.0,81,0.00,,,0.00,0,Wunderground v.1.15,2013-09-07 08:21:00,
2013-09-07 03:23:00,71.0,64.9,29.83,South,190,0.0,4.0,81,0.00,,,0.00,0,Wunderground v.1.15,2013-09-07 08:23:00,
2013-09-07 03:25:00,71.0,64.9,29.84,SSW,205,0.0,4.0,81,0.00,,,0.00,0,Wunderground v.1.15,2013-09-07 08:25:00,
2013-09-07 03:26:00,71.0,64.9,29.84,SW,219,0.0,4.0,81,0.00,,,0.00,0,Wunderground v.1.15,2013-09-07 08:26:00,
2013-09-07 03:27:00,71.0,64.9,29.84,SSW,207,1.0,4.0,81,0.00,,,0.00,0,Wunderground v.1.15,2013-09-07 08:27:00,
2013-09-07 03:29:00,71.0,64.9,29.83,South,183,0.0,4.0,81,0.00,,,0.00,0,Wunderground v.1.15,2013-09-07 08:29:00,
2013-09-07 03:30:00,71.0,64.9,29.83,South,188,1.0,1.0,81,0.00,,,0.00,0,Wunderground v.1.15,2013-09-07 08:30:00,
2013-09-07 03:32:00,71.0,64.9,29.83,South,183,2.0,2.0,81,0.00,,,0.00,0,Wunderground v.1.15,2013-09-07 08:32:00,
2013-09-07 03:34:00,71.0,64.9,29.83,SSW,198,3.0,4.0,81,0.00,,,0.00,0,Wunderground v.1.15,2013-09-07 08:34:00,
2013-09-07 03:35:00,71.0,64.9,29.83,SSW,201,3.0,4.0,81,0.00,,,0.00,0,Wunderground v.1.15,2013-09-07 08:35:00,
2013-09-07 03:36:00,71.0,64.9,29.83,SSW,194,2.0,4.0,81,0.00,,,0.00,0,Wunderground v.1.15,2013-09-07 08:36:00,
2013-09-07 03:37:00,71.1,65.0,29.83,SSW,194,0.0,4.0,81,0.00,,,0.00,0,Wunderground v.1.15,2013-09-07 08:37:00,
2013-09-07 03:39:00,71.0,64.9,29.83,SSW,194,1.0,4.0,81,0.00,,,0.00,0,Wunderground v.1.15,2013-09-07 08:39:00,
2013-09-07 03:40:00,71.0,64.9,29.83,SSW,194,0.0,1.0,81,0.00,,,0.00,0,Wunderground v.1.15,2013-09-07 08:40:00,
2013-09-07 03:41:00,71.0,64.9,29.83,SSW,194,0.0,1.0,81,0.00,,,0.00,0,Wunderground v.1.15,2013-09-07 08:41:00,
2013-09-07 03:43:00,70.9,64.8,29.83,SSW,193,0.0,3.0,81,0.00,,,0.00,0,Wunderground v.1.15,2013-09-07 08:43:00,
2013-09-07 03:44:00,70.9,64.8,29.83,SSW,193,0.0,3.0,81,0.00,,,0.00,0,Wunderground v.1.15,2013-09-07 08:44:00,
2013-09-07 03:45:00,70.8,64.7,29.83,SSW,193,0.0,3.0,81,0.00,,,0.00,0,Wunderground v.1.15,2013-09-07 08:45:00,
2013-09-07 03:46:00,70.8,65.0,29.83,SSW,193,1.0,3.0,82,0.00,,,0.00,0,Wunderground v.1.15,2013-09-07 08:46:00,
2013-09-07 03:47:00,70.8,65.0,29.83,South,190,1.0,3.0,82,0.00,,,0.00,0,Wunderground v.1.15,2013-09-07 08:47:00,
2013-09-07 03:48:00,70.8,65.0,29.83,South,184,2.0,3.0,82,0.00,,,0.00,0,Wunderground v.1.15,2013-09-07 08:48:00,
2013-09-07 03:50:00,70.7,64.9,29.83,South,183,1.0,2.0,82,0.00,,,0.00,0,Wunderground v.1.15,2013-09-07 08:50:00,
2013-09-07 03:51:00,70.7,64.9,29.83,South,182,0.0,2.0,82,0.00,,,0.00,0,Wunderground v.1.15,2013-09-07 08:51:00,
2013-09-07 03:52:00,70.7,64.9,29.83,South,182,0.0,2.0,82,0.00,,,0.00,0,Wunderground v.1.15,2013-09-07 08:52:00,
2013-09-07 03:57:00,70.7,65.3,29.83,South,179,0.0,2.0,83,0.00,,,0.00,0,Wunderground v.1.15,2013-09-07 08:57:00,
2013-09-07 03:58:00,70.7,65.3,29.83,South,179,0.0,2.0,83,0.00,,,0.00,0,Wunderground v.1.15,2013-09-07 08:58:00,
2013-09-07 03:59:00,70.7,65.3,29.83,South,179,0.0,2.0,83,0.00,,,0.00,0,Wunderground v.1.15,2013-09-07 08:59:00,
2013-09-07 04:02:00,70.7,65.3,29.83,South,179,0.0,0.0,83,0.00,,,0.00,0,Wunderground v.1.15,2013-09-07 09:02:00,
2013-09-07 04:04:00,70.7,64.9,29.83,South,179,0.0,0.0,82,0.00,,,0.00,0,Wunderground v.1.15,2013-09-07 09:04:00,
2013-09-07 04:05:00,70.8,65.0,29.83,South,179,0.0,0.0,82,0.00,,,0.00,0,Wunderground v.1.15,2013-09-07 09:05:00,
2013-09-07 04:07:00,70.8,65.0,29.83,South,179,0.0,0.0,82,0.00,,,0.00,0,Wunderground v.1.15,2013-09-07 09:07:00,
2013-09-07 04:10:00,70.9,65.1,29.83,South,179,0.0,0.0,82,0.00,,,0.00,0,Wunderground v.1.15,2013-09-07 09:10:00,
2013-09-07 04:12:00,70.9,65.1,29.83,South,179,0.0,0.0,82,0.00,,,0.00,0,Wunderground v.1.15,2013-09-07 09:12:00,
2013-09-07 04:14:00,71.0,65.2,29.83,SE,136,0.0,1.0,82,0.00,,,0.00,0,Wunderground v.1.15,2013-09-07 09:14:00,
2013-09-07 04:15:00,71.0,65.2,29.82,SSE,148,2.0,2.0,82,0.00,,,0.00,0,Wunderground v.1.15,2013-09-07 09:15:00,
2013-09-07 04:17:00,71.0,65.2,29.82,SE,146,0.0,3.0,82,0.00,,,0.00,0,Wunderground v.1.15,2013-09-07 09:17:00,
2013-09-07 04:18:00,71.0,65.2,29.82,South,178,2.0,3.0,82,0.00,,,0.00,0,Wunderground v.1.15,2013-09-07 09:18:00,
2013-09-07 04:20:00,71.1,65.3,29.82,South,182,0.0,2.0,82,0.00,,,0.00,0,Wunderground v.1.15,2013-09-07 09:20:00,
2013-09-07 04:22:00,71.2,65.4,29.82,SSW,207,3.0,3.0,82,0.00,,,0.00,0,Wunderground v.1.15,2013-09-07 09:22:00,
2013-09-07 04:24:00,71.2,65.4,29.82,SSW,204,0.0,3.0,82,0.00,,,0.00,0,Wunderground v.1.15,2013-09-07 09:24:00,
2013-09-07 04:25:00,71.2,65.4,29.82,South,190,1.0,4.0,82,0.00,,,0.00,0,Wunderground v.1.15,2013-09-07 09:25:00,
2013-09-07 04:26:00,71.3,65.5,29.82,South,190,0.0,4.0,82,0.00,,,0.00,0,Wunderground v.1.15,2013-09-07 09:26:00,
2013-09-07 04:28:00,71.3,65.5,29.82,South,191,0.0,4.0,82,0.00,,,0.00,0,Wunderground v.1.15,2013-09-07 09:28:00,
2013-09-07 04:29:00,71.3,65.5,29.82,South,175,1.0,4.0,82,0.00,,,0.00,0,Wunderground v.1.15,2013-09-07 09:29:00,
2013-09-07 04:30:00,71.4,65.6,29.82,South,175,0.0,1.0,82,0.00,,,0.00,0,Wunderground v.1.15,2013-09-07 09:30:00,
2013-09-07 04:31:00,71.5,65.7,29.82,South,185,0.0,3.0,82,0.00,,,0.00,0,Wunderground v.1.15,2013-09-07 09:31:00,
2013-09-07 04:33:00,71.7,65.6,29.83,South,181,0.0,3.0,81,0.00,,,0.00,0,Wunderground v.1.15,2013-09-07 09:33:00,
2013-09-07 04:34:00,71.7,65.6,29.83,South,174,2.0,3.0,81,0.00,,,0.00,0,Wunderground v.1.15,2013-09-07 09:34:00,
2013-09-07 04:35:00,71.8,65.7,29.83,South,174,0.0,3.0,81,0.00,,,0.00,0,Wunderground v.1.15,2013-09-07 09:35:00,
2013-09-07 04:37:00,71.9,65.8,29.83,SSE,150,2.0,3.0,81,0.00,,,0.00,0,Wunderground v.1.15,2013-09-07 09:37:00,
2013-09-07 04:38:00,72.0,65.8,29.83,SSE,153,0.0,3.0,81,0.00,,,0.00,0,Wunderground v.1.15,2013-09-07 09:38:00,
2013-09-07 04:41:00,72.1,65.9,29.83,SSE,153,0.0,1.0,81,0.00,,,0.00,0,Wunderground v.1.15,2013-09-07 09:41:00,
2013-09-07 04:42:00,72.1,65.9,29.83,SSE,153,0.0,1.0,81,0.00,,,0.00,0,Wunderground v.1.15,2013-09-07 09:42:00,
2013-09-07 04:43:00,72.1,65.6,29.83,SSE,153,0.0,2.0,80,0.00,,,0.00,0,Wunderground v.1.15,2013-09-07 09:43:00,
2013-09-07 04:44:00,72.2,65.7,29.83,SSE,153,0.0,2.0,80,0.00,,,0.00,0,Wunderground v.1.15,2013-09-07 09:44:00,
2013-09-07 04:47:00,72.2,65.7,29.83,SSE,153,1.0,3.0,80,0.00,,,0.00,0,Wunderground v.1.15,2013-09-07 09:47:00,
2013-09-07 04:48:00,72.3,65.8,29.83,SSE,153,0.0,3.0,80,0.00,,,0.00,0,Wunderground v.1.15,2013-09-07 09:48:00,
2013-09-07 04:50:00,72.3,65.8,29.83,SSE,153,0.0,0.0,80,0.00,,,0.00,0,Wunderground v.1.15,2013-09-07 09:50:00,
2013-09-07 04:51:00,72.3,65.8,29.83,SSE,153,0.0,0.0,80,0.00,,,0.00,0,Wunderground v.1.15,2013-09-07 09:51:00,
2013-09-07 04:52:00,72.3,65.8,29.83,SSE,156,2.0,2.0,80,0.00,,,0.00,0,Wunderground v.1.15,2013-09-07 09:52:00,
2013-09-07 04:53:00,72.3,65.8,29.83,SSE,156,0.0,2.0,80,0.00,,,0.00,0,Wunderground v.1.15,2013-09-07 09:53:00,
2013-09-07 04:54:00,72.3,65.8,29.83,SSE,156,0.0,2.0,80,0.00,,,0.00,0,Wunderground v.1.15,2013-09-07 09:54:00,
2013-09-07 04:57:00,72.2,65.7,29.82,SSE,156,1.0,2.0,80,0.00,,,0.00,0,Wunderground v.1.15,2013-09-07 09:57:00,
2013-09-07 04:58:00,72.2,66.0,29.82,SSE,156,0.0,2.0,81,0.00,,,0.00,0,Wunderground v.1.15,2013-09-07 09:58:00,
2013-09-07 04:59:00,72.2,66.0,29.82,SSE,156,0.0,2.0,81,0.00,,,0.00,0,Wunderground v.1.15,2013-09-07 09:59:00,
2013-09-07 05:00:00,72.1,65.9,29.83,SSE,156,0.0,0.0,81,0.00,,,0.00,0,Wunderground v.1.15,2013-09-07 10:00:00,
2013-09-07 05:03:00,71.9,65.8,29.83,SSE,156,0.0,0.0,81,0.00,,,0.00,0,Wunderground v.1.15,2013-09-07 10:03:00,
2013-09-07 05:04:00,71.8,65.7,29.82,SSE,163,0.0,1.0,81,0.00,,,0.00,0,Wunderground v.1.15,2013-09-07 10:04:00,
2013-09-07 05:06:00,71.7,65.6,29.82,SSE,163,0.0,1.0,81,0.00,,,0.00,0,Wunderground v.1.15,2013-09-07 10:06:00,
2013-09-07 05:07:00,71.6,65.8,29.82,SSE,163,0.0,1.0,82,0.00,,,0.00,0,Wunderground v.1.15,2013-09-07 10:07:00,
2013-09-07 05:08:00,71.5,65.7,29.82,SSE,163,0.0,1.0,82,0.00,,,0.00,0,Wunderground v.1.15,2013-09-07 10:08:00,
2013-09-07 05:09:00,71.5,65.7,29.82,SSE,163,0.0,1.0,82,0.00,,,0.00,0,Wunderground v.1.15,2013-09-07 10:09:00,
2013-09-07 05:11:00,71.3,65.9,29.83,SSE,163,0.0,0.0,83,0.00,,,0.00,0,Wunderground v.1.15,2013-09-07 10:11:00,
2013-09-07 05:12:00,71.3,65.9,29.83,SSE,163,0.0,0.0,83,0.00,,,0.00,0,Wunderground v.1.15,2013-09-07 10:12:00,
2013-09-07 05:13:00,71.2,65.8,29.82,SSE,163,0.0,0.0,83,0.00,,,0.00,0,Wunderground v.1.15,2013-09-07 10:13:00,
2013-09-07 05:14:00,71.2,65.8,29.82,SSE,163,0.0,0.0,83,0.00,,,0.00,0,Wunderground v.1.15,2013-09-07 10:14:00,
2013-09-07 05:17:00,71.0,65.6,29.82,SSE,163,0.0,0.0,83,0.00,,,0.00,0,Wunderground v.1.15,2013-09-07 10:17:00,
2013-09-07 05:18:00,71.0,65.6,29.82,SSE,163,0.0,0.0,83,0.00,,,0.00,0,Wunderground v.1.15,2013-09-07 10:18:00,
2013-09-07 05:19:00,70.9,65.5,29.82,SSE,163,0.0,0.0,83,0.00,,,0.00,0,Wunderground v.1.15,2013-09-07 10:19:00,
2013-09-07 05:21:00,70.8,65.7,29.82,SSE,163,0.0,0.0,84,0.00,,,0.00,0,Wunderground v.1.15,2013-09-07 10:21:00,
2013-09-07 05:22:00,70.7,65.6,29.82,SSE,163,0.0,0.0,84,0.00,,,0.00,0,Wunderground v.1.15,2013-09-07 10:22:00,
2013-09-07 05:23:00,70.7,65.6,29.82,SSE,163,0.0,0.0,84,0.00,,,0.00,0,Wunderground v.1.15,2013-09-07 10:23:00,
2013-09-07 05:24:00,70.6,65.5,29.82,SSE,163,0.0,0.0,84,0.00,,,0.00,0,Wunderground v.1.15,2013-09-07 10:24:00,
2013-09-07 05:27:00,70.4,65.3,29.82,SSE,163,0.0,0.0,84,0.00,,,0.00,0,Wunderground v.1.15,2013-09-07 10:27:00,
2013-09-07 05:28:00,70.4,65.3,29.82,SSE,163,0.0,0.0,84,0.00,,,0.00,0,Wunderground v.1.15,2013-09-07 10:28:00,
2013-09-07 05:29:00,70.3,65.2,29.82,SSE,163,0.0,0.0,84,0.00,,,0.00,0,Wunderground v.1.15,2013-09-07 10:29:00,
2013-09-07 05:30:00,70.2,65.5,29.82,SSE,163,0.0,0.0,85,0.00,,,0.00,0,Wunderground v.1.15,2013-09-07 10:30:00,
2013-09-07 05:33:00,70.0,65.3,29.82,SSE,163,0.0,0.0,85,0.00,,,0.00,0,Wunderground v.1.15,2013-09-07 10:33:00,
2013-09-07 05:35:00,69.9,65.2,29.82,SSE,163,0.0,0.0,85,0.00,,,0.00,0,Wunderground v.1.15,2013-09-07 10:35:00,
2013-09-07 05:37:00,69.7,65.3,29.82,SSE,163,0.0,0.0,86,0.00,,,0.00,0,Wunderground v.1.15,2013-09-07 10:37:00,
2013-09-07 05:39:00,69.6,65.2,29.82,SSE,163,0.0,0.0,86,0.00,,,0.00,0,Wunderground v.1.15,2013-09-07 10:39:00,
2013-09-07 05:40:00,69.6,65.2,29.82,SSE,163,0.0,0.0,86,0.00,,,0.00,0,Wunderground v.1.15,2013-09-07 10:40:00,
2013-09-07 05:41:00,69.5,65.1,29.82,SSE,163,0.0,0.0,86,0.00,,,0.00,0,Wunderground v.1.15,2013-09-07 10:41:00,
2013-09-07 05:42:00,69.5,65.1,29.82,SSE,163,0.0,0.0,86,0.00,,,0.00,0,Wunderground v.1.15,2013-09-07 10:42:00,
2013-09-07 05:43:00,69.5,65.1,29.82,SSE,163,0.0,0.0,86,0.00,,,0.00,0,Wunderground v.1.15,2013-09-07 10:43:00,
2013-09-07 05:44:00,69.5,65.1,29.82,SSE,163,0.0,0.0,86,0.00,,,0.00,0,Wunderground v.1.15,2013-09-07 10:44:00,
2013-09-07 05:47:00,69.4,65.4,29.82,SSE,163,0.0,0.0,87,0.00,,,0.00,0,Wunderground v.1.15,2013-09-07 10:47:00,
2013-09-07 05:49:00,69.4,65.4,29.82,SSE,163,0.0,0.0,87,0.00,,,0.00,0,Wunderground v.1.15,2013-09-07 10:49:00,
2013-09-07 05:50:00,69.4,65.4,29.82,SSE,163,0.0,0.0,87,0.00,,,0.00,0,Wunderground v.1.15,2013-09-07 10:50:00,
2013-09-07 05:52:00,69.4,65.4,29.82,SSE,163,0.0,0.0,87,0.00,,,0.00,0,Wunderground v.1.15,2013-09-07 10:52:00,
2013-09-07 05:53:00,69.4,65.4,29.82,SSE,163,0.0,0.0,87,0.00,,,0.00,0,Wunderground v.1.15,2013-09-07 10:53:00,
2013-09-07 05:54:00,69.5,65.5,29.82,SSE,163,0.0,0.0,87,0.00,,,0.00,0,Wunderground v.1.15,2013-09-07 10:54:00,
2013-09-07 05:57:00,69.6,65.6,29.82,SSE,163,0.0,1.0,87,0.00,,,0.00,0,Wunderground v.1.15,2013-09-07 10:57:00,
2013-09-07 05:58:00,69.6,65.6,29.82,SSE,163,0.0,1.0,87,0.00,,,0.00,0,Wunderground v.1.15,2013-09-07 10:58:00,
2013-09-07 05:59:00,69.6,65.6,29.82,SSE,163,0.0,1.0,87,0.00,,,0.00,0,Wunderground v.1.15,2013-09-07 10:59:00,
2013-09-07 06:00:00,69.6,65.6,29.82,SSE,163,0.0,0.0,87,0.00,,,0.00,0,Wunderground v.1.15,2013-09-07 11:00:00,
2013-09-07 06:02:00,69.6,65.6,29.82,SSE,163,0.0,1.0,87,0.00,,,0.00,0,Wunderground v.1.15,2013-09-07 11:02:00,
2013-09-07 06:04:00,69.6,65.6,29.82,SSE,163,0.0,1.0,87,0.00,,,0.00,0,Wunderground v.1.15,2013-09-07 11:04:00,
2013-09-07 06:05:00,69.6,65.6,29.82,SSE,163,0.0,1.0,87,0.00,,,0.00,0,Wunderground v.1.15,2013-09-07 11:05:00,
2013-09-07 06:07:00,69.5,65.5,29.82,SSE,165,0.0,1.0,87,0.00,,,0.00,0,Wunderground v.1.15,2013-09-07 11:07:00,
2013-09-07 06:08:00,69.5,65.5,29.82,SSW,194,0.0,1.0,87,0.00,,,0.00,0,Wunderground v.1.15,2013-09-07 11:08:00,
2013-09-07 06:09:00,69.5,65.5,29.82,SSW,194,0.0,1.0,87,0.00,,,0.00,0,Wunderground v.1.15,2013-09-07 11:09:00,
2013-09-07 06:10:00,69.5,65.5,29.82,SSW,194,0.0,0.0,87,0.00,,,0.00,0,Wunderground v.1.15,2013-09-07 11:10:00,
2013-09-07 06:12:00,69.5,65.5,29.82,South,190,0.0,1.0,87,0.00,,,0.00,0,Wunderground v.1.15,2013-09-07 11:12:00,
2013-09-07 06:13:00,69.5,65.5,29.82,South,190,0.0,1.0,87,0.00,,,0.00,0,Wunderground v.1.15,2013-09-07 11:13:00,
2013-09-07 06:15:00,69.5,65.5,29.82,South,188,0.0,1.0,87,0.00,,,0.00,0,Wunderground v.1.15,2013-09-07 11:15:00,
2013-09-07 06:17:00,69.5,65.5,29.82,South,188,0.0,1.0,87,0.00,,,0.00,0,Wunderground v.1.15,2013-09-07 11:17:00,
2013-09-07 06:18:00,69.5,65.5,29.82,South,188,0.0,1.0,87,0.00,,,0.00,0,Wunderground v.1.15,2013-09-07 11:18:00,
2013-09-07 06:20:00,69.6,65.6,29.82,South,187,0.0,0.0,87,0.00,,,0.00,0,Wunderground v.1.15,2013-09-07 11:20:00,
2013-09-07 06:23:00,69.6,65.6,29.82,South,182,1.0,1.0,87,0.00,,,0.00,0,Wunderground v.1.15,2013-09-07 11:23:00,
2013-09-07 06:24:00,69.6,65.6,29.82,South,182,0.0,1.0,87,0.00,,,0.00,0,Wunderground v.1.15,2013-09-07 11:24:00,
2013-09-07 06:26:00,69.7,65.7,29.82,South,182,2.0,2.0,87,0.00,,,0.00,0,Wunderground v.1.15,2013-09-07 11:26:00,
2013-09-07 06:30:00,69.8,65.4,29.82,South,182,0.0,0.0,86,0.00,,,0.00,0,Wunderground v.1.15,2013-09-07 11:30:00,
2013-09-07 06:31:00,69.9,65.5,29.82,South,180,0.0,0.0,86,0.00,,,0.00,0,Wunderground v.1.15,2013-09-07 11:31:00,
2013-09-07 06:32:00,69.9,65.5,29.82,South,190,1.0,2.0,86,0.00,,,0.00,0,Wunderground v.1.15,2013-09-07 11:32:00,
2013-09-07 06:34:00,70.0,65.6,29.82,South,184,0.0,2.0,86,0.00,,,0.00,0,Wunderground v.1.15,2013-09-07 11:34:00,
2013-09-07 06:35:00,70.1,65.7,29.82,South,184,0.0,2.0,86,0.00,,,0.00,0,Wunderground v.1.15,2013-09-07 11:35:00,
2013-09-07 06:36:00,70.1,65.7,29.82,South,182,0.0,3.0,86,0.00,,,0.00,0,Wunderground v.1.15,2013-09-07 11:36:00,
2013-09-07 06:37:00,70.2,65.8,29.81,South,180,0.0,3.0,86,0.00,,,0.00,0,Wunderground v.1.15,2013-09-07 11:37:00,
2013-09-07 06:38:00,70.2,65.5,29.81,South,176,0.0,3.0,85,0.00,,,0.00,0,Wunderground v.1.15,2013-09-07 11:38:00,
2013-09-07 06:40:00,70.3,65.6,29.82,South,176,0.0,1.0,85,0.00,,,0.00,0,Wunderground v.1.15,2013-09-07 11:40:00,
2013-09-07 06:42:00,70.3,65.6,29.82,South,177,0.0,1.0,85,0.00,,,0.00,0,Wunderground v.1.15,2013-09-07 11:42:00,
2013-09-07 06:43:00,70.3,65.6,29.82,South,177,0.0,1.0,85,0.00,,,0.00,0,Wunderground v.1.15,2013-09-07 11:43:00,
2013-09-07 06:44:00,70.3,65.6,29.82,South,181,2.0,2.0,85,0.00,,,0.00,0,Wunderground v.1.15,2013-09-07 11:44:00,
2013-09-07 06:46:00,70.3,65.6,29.82,South,182,2.0,3.0,85,0.00,,,0.00,0,Wunderground v.1.15,2013-09-07 11:46:00,
2013-09-07 06:48:00,70.3,65.6,29.82,South,182,0.0,3.0,85,0.00,,,0.00,0,Wunderground v.1.15,2013-09-07 11:48:00,
2013-09-07 06:49:00,70.3,65.6,29.82,South,182,0.0,3.0,85,0.00,,,0.00,0,Wunderground v.1.15,2013-09-07 11:49:00,
2013-09-07 06:51:00,70.3,65.6,29.82,South,189,0.0,2.0,85,0.00,,,0.00,5,Wunderground v.1.15,2013-09-07 11:51:00,
2013-09-07 06:52:00,70.3,65.6,29.82,South,186,0.0,2.0,85,0.00,,,0.00,5,Wunderground v.1.15,2013-09-07 11:52:00,
2013-09-07 06:53:00,70.2,65.5,29.82,South,187,1.0,2.0,85,0.00,,,0.00,5,Wunderground v.1.15,2013-09-07 11:53:00,
2013-09-07 06:54:00,70.2,65.5,29.82,SSW,201,3.0,4.0,85,0.00,,,0.00,5,Wunderground v.1.15,2013-09-07 11:54:00,
2013-09-07 06:56:00,70.2,65.5,29.82,SSW,201,0.0,4.0,85,0.00,,,0.00,7,Wunderground v.1.15,2013-09-07 11:56:00,
2013-09-07 06:58:00,70.2,65.5,29.81,South,187,2.0,4.0,85,0.00,,,0.00,9,Wunderground v.1.15,2013-09-07 11:58:00,
2013-09-07 06:59:00,70.1,65.4,29.81,South,185,2.0,4.0,85,0.00,,,0.00,9,Wunderground v.1.15,2013-09-07 11:59:00,
2013-09-07 07:02:00,70.1,65.4,29.81,South,182,1.0,1.0,85,0.00,,,0.00,12,Wunderground v.1.15,2013-09-07 12:02:00,
2013-09-07 07:03:00,70.1,65.7,29.81,South,184,0.0,2.0,86,0.00,,,0.00,14,Wunderground v.1.15,2013-09-07 12:03:00,
2013-09-07 07:04:00,70.1,65.7,29.81,South,183,2.0,2.0,86,0.00,,,0.00,14,Wunderground v.1.15,2013-09-07 12:04:00,
2013-09-07 07:06:00,70.2,65.8,29.81,SSE,164,1.0,3.0,86,0.00,,,0.00,16,Wunderground v.1.15,2013-09-07 12:06:00,
2013-09-07 07:07:00,70.2,65.5,29.81,South,169,1.0,3.0,85,0.00,,,0.00,18,Wunderground v.1.15,2013-09-07 12:07:00,
2013-09-07 07:09:00,70.3,65.6,29.81,South,171,2.0,3.0,85,0.00,,,0.00,19,Wunderground v.1.15,2013-09-07 12:09:00,
2013-09-07 07:10:00,70.4,65.7,29.81,SSE,153,0.0,2.0,85,0.00,,,0.00,19,Wunderground v.1.15,2013-09-07 12:10:00,
2013-09-07 07:11:00,70.4,65.7,29.81,South,175,0.0,2.0,85,0.00,,,0.00,21,Wunderground v.1.15,2013-09-07 12:11:00,
2013-09-07 07:12:00,70.4,65.7,29.81,South,174,1.0,3.0,85,0.00,,,0.00,21,Wunderground v.1.15,2013-09-07 12:12:00,
2013-09-07 07:14:00,70.6,65.9,29.81,SSE,164,4.0,4.0,85,0.00,,,0.00,25,Wunderground v.1.15,2013-09-07 12:14:00,
2013-09-07 07:15:00,70.8,66.1,29.81,SSE,154,4.0,4.0,85,0.00,,,0.00,26,Wunderground v.1.15,2013-09-07 12:15:00,
2013-09-07 07:16:00,70.8,66.1,29.81,SSE,168,3.0,4.0,85,0.00,,,0.00,26,Wunderground v.1.15,2013-09-07 12:16:00,
2013-09-07 07:17:00,70.9,65.8,29.81,SSE,157,3.0,4.0,84,0.00,,,0.00,28,Wunderground v.1.15,2013-09-07 12:17:00,
2013-09-07 07:19:00,71.0,65.9,29.81,South,173,2.0,5.0,84,0.00,,,0.00,30,Wunderground v.1.15,2013-09-07 12:19:00,
2013-09-07 07:21:00,71.2,66.1,29.81,South,171,3.0,4.0,84,0.00,,,0.00,33,Wunderground v.1.15,2013-09-07 12:21:00,
2013-09-07 07:23:00,71.3,65.9,29.81,SSE,154,2.0,6.0,83,0.00,,,0.00,35,Wunderground v.1.15,2013-09-07 12:23:00,
2013-09-07 07:25:00,71.5,66.4,29.81,South,182,2.0,6.0,84,0.00,,,0.00,39,Wunderground v.1.15,2013-09-07 12:25:00,
2013-09-07 07:27:00,71.5,66.1,29.80,SSE,165,0.0,6.0,83,0.00,,,0.00,44,Wunderground v.1.15,2013-09-07 12:27:00,
2013-09-07 07:29:00,71.5,66.1,29.81,SSE,165,2.0,6.0,83,0.00,,,0.00,46,Wunderground v.1.15,2013-09-07 12:29:00,
2013-09-07 07:32:00,71.6,66.2,29.81,South,175,0.0,3.0,83,0.00,,,0.00,54,Wunderground v.1.15,2013-09-07 12:32:00,
2013-09-07 07:33:00,71.7,66.3,29.81,SSE,159,0.0,3.0,83,0.00,,,0.00,58,Wunderground v.1.15,2013-09-07 12:33:00,
2013-09-07 07:34:00,71.7,66.3,29.81,SSE,159,1.0,3.0,83,0.00,,,0.00,60,Wunderground v.1.15,2013-09-07 12:34:00,
2013-09-07 07:36:00,71.8,66.4,29.81,South,190,2.0,5.0,83,0.00,,,0.00,62,Wunderground v.1.15,2013-09-07 12:36:00,
2013-09-07 07:37:00,71.8,66.4,29.81,South,184,0.0,5.0,83,0.00,,,0.00,65,Wunderground v.1.15,2013-09-07 12:37:00,
2013-09-07 07:39:00,71.9,66.5,29.81,SSW,196,1.0,5.0,83,0.00,,,0.00,70,Wunderground v.1.15,2013-09-07 12:39:00,
2013-09-07 07:42:00,72.1,66.6,29.80,SSW,207,4.0,4.0,83,0.00,,,0.00,79,Wunderground v.1.15,2013-09-07 12:42:00,
2013-09-07 07:43:00,72.2,66.7,29.80,SW,217,5.0,5.0,83,0.00,,,0.00,81,Wunderground v.1.15,2013-09-07 12:43:00,
2013-09-07 07:44:00,72.3,66.8,29.80,South,182,2.0,5.0,83,0.00,,,0.00,84,Wunderground v.1.15,2013-09-07 12:44:00,
2013-09-07 07:47:00,72.6,66.8,29.80,SSW,200,0.0,5.0,82,0.00,,,0.00,93,Wunderground v.1.15,2013-09-07 12:47:00,
2013-09-07 07:49:00,72.7,66.9,29.80,SSW,197,0.0,5.0,82,0.00,,,0.00,98,Wunderground v.1.15,2013-09-07 12:49:00,
2013-09-07 07:50:00,72.9,67.1,29.80,SSW,194,0.0,3.0,82,0.00,,,0.00,104,Wunderground v.1.15,2013-09-07 12:50:00,
2013-09-07 07:53:00,73.1,67.3,29.80,South,179,1.0,4.0,82,0.00,,,0.00,109,Wunderground v.1.15,2013-09-07 12:53:00,
2013-09-07 07:55:00,73.2,67.0,29.80,South,178,2.0,4.0,81,0.00,,,0.00,116,Wunderground v.1.15,2013-09-07 12:55:00,
2013-09-07 07:56:00,73.3,67.1,29.80,South,182,4.0,4.0,81,0.00,,,0.00,123,Wunderground v.1.15,2013-09-07 12:56:00,
2013-09-07 07:58:00,73.4,67.2,29.80,SSW,198,3.0,4.0,81,0.00,,,0.00,125,Wunderground v.1.15,2013-09-07 12:58:00,
2013-09-07 07:59:00,73.5,67.3,29.80,South,172,3.0,4.0,81,0.00,,,0.00,128,Wunderground v.1.15,2013-09-07 12:59:00,
2013-09-07 08:00:00,73.7,67.5,29.80,SSW,192,3.0,3.0,81,0.00,,,0.00,134,Wunderground v.1.15,2013-09-07 13:00:00,
2013-09-07 08:01:00,73.8,67.6,29.80,SSW,211,4.0,6.0,81,0.00,,,0.00,137,Wunderground v.1.15,2013-09-07 13:01:00,
2013-09-07 08:02:00,73.8,67.2,29.80,SW,218,0.0,6.0,80,0.00,,,0.00,139,Wunderground v.1.15,2013-09-07 13:02:00,
2013-09-07 08:04:00,74.1,67.5,29.80,South,186,2.0,6.0,80,0.00,,,0.00,148,Wunderground v.1.15,2013-09-07 13:04:00,
2013-09-07 08:05:00,74.3,67.4,29.80,SSW,205,4.0,6.0,79,0.00,,,0.00,151,Wunderground v.1.15,2013-09-07 13:05:00,
2013-09-07 08:07:00,74.5,67.6,29.80,SSW,205,3.0,6.0,79,0.00,,,0.00,156,Wunderground v.1.15,2013-09-07 13:07:00,
2013-09-07 08:09:00,74.9,67.6,29.80,SSW,192,3.0,7.0,78,0.00,,,0.00,162,Wunderground v.1.15,2013-09-07 13:09:00,
2013-09-07 08:10:00,74.9,67.6,29.79,South,188,1.0,3.0,78,0.00,,,0.00,165,Wunderground v.1.15,2013-09-07 13:10:00,
2013-09-07 08:12:00,75.2,67.9,29.79,South,187,3.0,7.0,78,0.00,,,0.00,172,Wunderground v.1.15,2013-09-07 13:12:00,
2013-09-07 08:14:00,75.5,68.2,29.79,South,189,2.0,7.0,78,0.00,,,0.00,176,Wunderground v.1.15,2013-09-07 13:14:00,
2013-09-07 08:15:00,75.6,67.9,29.79,SSW,196,4.0,7.0,77,0.00,,,0.00,179,Wunderground v.1.15,2013-09-07 13:15:00,
2013-09-07 08:18:00,75.9,68.2,29.79,SSW,200,3.0,7.0,77,0.00,,,0.00,188,Wunderground v.1.15,2013-09-07 13:18:00,
2013-09-07 08:19:00,76.0,67.9,29.79,South,188,1.0,7.0,76,0.00,,,0.00,190,Wunderground v.1.15,2013-09-07 13:19:00,
2013-09-07 08:21:00,76.2,68.5,29.79,SSW,206,4.0,8.0,77,0.00,,,0.00,199,Wunderground v.1.15,2013-09-07 13:21:00,
2013-09-07 08:24:00,76.5,68.4,29.79,South,190,4.0,8.0,76,0.00,,,0.00,206,Wunderground v.1.15,2013-09-07 13:24:00,
2013-09-07 08:25:00,76.6,68.1,29.79,SSW,211,0.0,9.0,75,0.00,,,0.00,211,Wunderground v.1.15,2013-09-07 13:25:00,
2013-09-07 08:26:00,76.8,68.3,29.79,SW,217,5.0,9.0,75,0.00,,,0.00,214,Wunderground v.1.15,2013-09-07 13:26:00,
2013-09-07 08:27:00,76.8,68.3,29.79,South,178,5.0,9.0,75,0.00,,,0.00,214,Wunderground v.1.15,2013-09-07 13:27:00,
2013-09-07 08:30:00,77.1,68.2,29.79,SSW,201,3.0,5.0,74,0.00,,,0.00,225,Wunderground v.1.15,2013-09-07 13:30:00,
2013-09-07 08:31:00,77.3,68.4,29.79,South,188,5.0,5.0,74,0.00,,,0.00,229,Wunderground v.1.15,2013-09-07 13:31:00,
2013-09-07 08:32:00,77.3,68.4,29.79,SW,226,6.0,6.0,74,0.00,,,0.00,230,Wunderground v.1.15,2013-09-07 13:32:00,
2013-09-07 08:33:00,77.4,68.5,29.79,South,187,5.0,6.0,74,0.00,,,0.00,230,Wunderground v.1.15,2013-09-07 13:33:00,
2013-09-07 08:35:00,77.6,68.7,29.79,SW,217,4.0,9.0,74,0.00,,,0.00,241,Wunderground v.1.15,2013-09-07 13:35:00,
2013-09-07 08:37:00,77.8,68.4,29.79,SW,215,2.0,9.0,73,0.00,,,0.00,246,Wunderground v.1.15,2013-09-07 13:37:00,
2013-09-07 08:38:00,77.8,68.4,29.79,SW,216,1.0,9.0,73,0.00,,,0.00,248,Wunderground v.1.15,2013-09-07 13:38:00,
2013-09-07 08:39:00,77.9,68.9,29.79,South,178,6.0,9.0,74,0.00,,,0.00,251,Wunderground v.1.15,2013-09-07 13:39:00,
2013-09-07 08:43:00,78.3,68.5,29.79,SSW,211,4.0,8.0,72,0.00,,,0.00,265,Wunderground v.1.15,2013-09-07 13:43:00,
2013-09-07 08:44:00,78.3,68.5,29.79,SW,217,5.0,8.0,72,0.00,,,0.00,269,Wunderground v.1.15,2013-09-07 13:44:00,
2013-09-07 08:46:00,78.5,68.3,29.79,SW,229,7.0,9.0,71,0.00,,,0.00,274,Wunderground v.1.15,2013-09-07 13:46:00,
2013-09-07 08:49:00,78.7,68.5,29.79,SSW,209,7.0,9.0,71,0.00,,,0.00,290,Wunderground v.1.15,2013-09-07 13:49:00,
2013-09-07 08:50:00,78.8,68.6,29.79,SSW,208,12.0,12.0,71,0.00,,,0.00,299,Wunderground v.1.15,2013-09-07 13:50:00,
2013-09-07 08:51:00,78.8,68.6,29.79,SSW,211,7.0,12.0,71,0.00,,,0.00,299,Wunderground v.1.15,2013-09-07 13:51:00,
2013-09-07 08:52:00,78.9,68.7,29.79,South,188,8.0,12.0,71,0.00,,,0.00,311,Wunderground v.1.15,2013-09-07 13:52:00,
2013-09-07 08:57:00,79.4,69.2,29.79,SW,235,5.0,12.0,71,0.00,,,0.00,355,Wunderground v.1.15,2013-09-07 13:57:00,
2013-09-07 08:58:00,79.5,69.3,29.79,SW,220,6.0,12.0,71,0.00,,,0.00,362,Wunderground v.1.15,2013-09-07 13:58:00,
2013-09-07 08:59:00,79.6,69.0,29.79,SW,215,5.0,12.0,70,0.00,,,0.00,378,Wunderground v.1.15,2013-09-07 13:59:00,
2013-09-07 09:02:00,79.9,69.7,29.79,SW,217,3.0,5.0,71,0.00,,,0.00,388,Wunderground v.1.15,2013-09-07 14:02:00,
2013-09-07 09:04:00,80.2,69.5,29.79,SSW,192,7.0,7.0,70,0.00,,,0.00,355,Wunderground v.1.15,2013-09-07 14:04:00,
2013-09-07 09:05:00,80.2,69.5,29.79,SW,227,7.0,7.0,70,0.00,,,0.00,355,Wunderground v.1.15,2013-09-07 14:05:00,
2013-09-07 09:07:00,80.0,68.9,29.79,SSW,211,7.0,8.0,69,0.00,,,0.00,130,Wunderground v.1.15,2013-09-07 14:07:00,
2013-09-07 09:10:00,79.6,68.5,29.80,SW,222,6.0,6.0,69,0.00,,,0.00,135,Wunderground v.1.15,2013-09-07 14:10:00,
2013-09-07 09:11:00,79.5,68.4,29.80,SW,221,6.0,6.0,69,0.00,,,0.00,153,Wunderground v.1.15,2013-09-07 14:11:00,
2013-09-07 09:12:00,79.5,68.4,29.80,SSW,205,5.0,6.0,69,0.00,,,0.00,148,Wunderground v.1.15,2013-09-07 14:12:00,
2013-09-07 09:14:00,79.5,69.3,29.80,SW,226,3.0,10.0,71,0.00,,,0.00,417,Wunderground v.1.15,2013-09-07 14:14:00,
2013-09-07 09:16:00,79.8,69.1,29.80,SW,226,5.0,10.0,70,0.00,,,0.00,413,Wunderground v.1.15,2013-09-07 14:16:00,
2013-09-07 09:17:00,79.9,69.2,29.80,SW,227,2.0,10.0,70,0.00,,,0.00,227,Wunderground v.1.15,2013-09-07 14:17:00,
2013-09-07 09:19:00,80.2,69.5,29.80,SW,219,3.0,10.0,70,0.00,,,0.00,413,Wunderground v.1.15,2013-09-07 14:19:00,
2013-09-07 09:22:00,80.2,69.1,29.80,SSW,201,6.0,8.0,69,0.00,,,0.00,193,Wunderground v.1.15,2013-09-07 14:22:00,
2013-09-07 09:23:00,80.3,69.2,29.80,SW,225,4.0,8.0,69,0.00,,,0.00,397,Wunderground v.1.15,2013-09-07 14:23:00,
2013-09-07 09:27:00,80.9,69.3,29.80,SW,223,6.0,8.0,68,0.00,,,0.00,399,Wunderground v.1.15,2013-09-07 14:27:00,
2013-09-07 09:28:00,81.0,69.9,29.80,SW,236,6.0,8.0,69,0.00,,,0.00,401,Wunderground v.1.15,2013-09-07 14:28:00,
2013-09-07 09:30:00,81.2,69.6,29.80,SW,230,4.0,8.0,68,0.00,,,0.00,404,Wunderground v.1.15,2013-09-07 14:30:00,
2013-09-07 09:33:00,81.6,70.0,29.80,SW,227,6.0,7.0,68,0.00,,,0.00,415,Wunderground v.1.15,2013-09-07 14:33:00,
2013-09-07 09:34:00,81.6,70.0,29.80,SW,230,2.0,7.0,68,0.00,,,0.00,422,Wunderground v.1.15,2013-09-07 14:34:00,
2013-09-07 09:35:00,81.7,70.1,29.80,SW,232,6.0,7.0,68,0.00,,,0.00,425,Wunderground v.1.15,2013-09-07 14:35:00,
2013-09-07 09:37:00,81.9,70.3,29.81,SW,225,7.0,8.0,68,0.00,,,0.00,434,Wunderground v.1.15,2013-09-07 14:37:00,
2013-09-07 09:38:00,82.0,70.4,29.81,SW,232,6.0,9.0,68,0.00,,,0.00,434,Wunderground v.1.15,2013-09-07 14:38:00,
2013-09-07 09:40:00,82.1,70.1,29.81,SW,225,2.0,5.0,67,0.00,,,0.00,441,Wunderground v.1.15,2013-09-07 14:40:00,
2013-09-07 09:41:00,82.3,70.2,29.81,SW,235,5.0,5.0,67,0.00,,,0.00,445,Wunderground v.1.15,2013-09-07 14:41:00,
2013-09-07 09:43:00,82.3,70.7,29.81,WSW,240,7.0,8.0,68,0.00,,,0.00,454,Wunderground v.1.15,2013-09-07 14:43:00,
2013-09-07 09:46:00,82.4,70.3,29.81,WSW,240,5.0,8.0,67,0.00,,,0.00,473,Wunderground v.1.15,2013-09-07 14:46:00,
2013-09-07 09:47:00,82.4,70.3,29.81,SSW,210,4.0,8.0,67,0.00,,,0.00,473,Wunderground v.1.15,2013-09-07 14:47:00,
2013-09-07 09:49:00,82.8,70.3,29.81,WSW,240,4.0,8.0,66,0.00,,,0.00,494,Wunderground v.1.15,2013-09-07 14:49:00,
2013-09-07 09:52:00,82.9,70.4,29.82,WSW,255,4.0,8.0,66,0.00,,,0.00,459,Wunderground v.1.15,2013-09-07 14:52:00,
2013-09-07 09:54:00,83.0,70.9,29.82,West,275,6.0,8.0,67,0.00,,,0.00,529,Wunderground v.1.15,2013-09-07 14:54:00,
2013-09-07 09:57:00,83.3,71.2,29.82,WSW,253,11.0,12.0,67,0.00,,,0.00,571,Wunderground v.1.15,2013-09-07 14:57:00,
2013-09-07 09:59:00,83.3,70.8,29.82,West,261,8.0,12.0,66,0.00,,,0.00,601,Wunderground v.1.15,2013-09-07 14:59:00,
2013-09-07 10:00:00,83.3,70.8,29.82,West,259,8.0,8.0,66,0.00,,,0.00,608,Wunderground v.1.15,2013-09-07 15:00:00,
2013-09-07 10:03:00,83.3,70.8,29.82,West,269,6.0,11.0,66,0.00,,,0.00,635,Wunderground v.1.15,2013-09-07 15:03:00,
2013-09-07 10:04:00,83.3,70.8,29.82,WSW,258,9.0,11.0,66,0.00,,,0.00,638,Wunderground v.1.15,2013-09-07 15:04:00,
2013-09-07 10:05:00,83.3,69.8,29.82,West,264,7.0,11.0,64,0.00,,,0.00,638,Wunderground v.1.15,2013-09-07 15:05:00,
2013-09-07 10:06:00,83.0,69.6,29.82,WSW,256,7.0,11.0,64,0.00,,,0.00,223,Wunderground v.1.15,2013-09-07 15:06:00,
2013-09-07 10:09:00,82.2,69.3,29.82,SW,227,11.0,11.0,65,0.00,,,0.00,181,Wunderground v.1.15,2013-09-07 15:09:00,
2013-09-07 10:10:00,82.0,69.1,29.81,WSW,247,8.0,8.0,65,0.00,,,0.00,174,Wunderground v.1.15,2013-09-07 15:10:00,
2013-09-07 10:11:00,81.8,69.3,29.81,SW,232,9.0,12.0,66,0.00,,,0.00,162,Wunderground v.1.15,2013-09-07 15:11:00,
2013-09-07 10:14:00,81.2,69.2,29.80,SW,231,10.0,12.0,67,0.00,,,0.00,153,Wunderground v.1.15,2013-09-07 15:14:00,
2013-09-07 10:16:00,81.0,69.0,29.80,WSW,239,4.0,12.0,67,0.00,,,0.00,153,Wunderground v.1.15,2013-09-07 15:16:00,
2013-09-07 10:17:00,80.8,69.2,29.80,SW,214,9.0,12.0,68,0.00,,,0.00,155,Wunderground v.1.15,2013-09-07 15:17:00,
2013-09-07 10:18:00,80.7,69.2,29.79,SSW,213,8.0,12.0,68,0.00,,,0.00,155,Wunderground v.1.15,2013-09-07 15:18:00,
2013-09-07 10:20:00,80.5,69.4,29.79,SW,219,8.0,9.0,69,0.00,,,0.00,160,Wunderground v.1.15,2013-09-07 15:20:00,
2013-09-07 10:21:00,80.4,69.3,29.78,SSW,208,9.0,9.0,69,0.00,,,0.00,162,Wunderground v.1.15,2013-09-07 15:21:00,
2013-09-07 10:22:00,80.4,68.9,29.78,SW,227,9.0,10.0,68,0.00,,,0.00,163,Wunderground v.1.15,2013-09-07 15:22:00,
2013-09-07 10:23:00,80.3,69.2,29.78,WSW,241,11.0,11.0,69,0.00,,,0.00,167,Wunderground v.1.15,2013-09-07 15:23:00,
2013-09-07 10:26:00,80.3,69.6,29.79,SSW,198,7.0,11.0,70,0.00,,,0.00,183,Wunderground v.1.15,2013-09-07 15:26:00,
2013-09-07 10:28:00,80.3,69.6,29.79,SW,227,10.0,11.0,70,0.00,,,0.00,199,Wunderground v.1.15,2013-09-07 15:28:00,
2013-09-07 10:29:00,80.3,69.6,29.79,SW,233,6.0,11.0,70,0.00,,,0.00,251,Wunderground v.1.15,2013-09-07 15:29:00,
2013-09-07 10:30:00,80.3,69.6,29.79,SW,216,10.0,10.0,70,0.00,,,0.00,251,Wunderground v.1.15,2013-09-07 15:30:00,
2013-09-07 10:33:00,80.4,69.7,29.80,West,261,5.0,10.0,70,0.00,,,0.00,200,Wunderground v.1.15,2013-09-07 15:33:00,
2013-09-07 10:34:00,80.4,69.7,29.80,West,263,2.0,10.0,70,0.00,,,0.00,200,Wunderground v.1.15,2013-09-07 15:34:00,
2013-09-07 10:35:00,80.4,69.7,29.80,West,263,2.0,10.0,70,0.00,,,0.00,199,Wunderground v.1.15,2013-09-07 15:35:00,
2013-09-07 10:37:00,80.5,69.8,29.81,West,261,5.0,10.0,70,0.00,,,0.00,204,Wunderground v.1.15,2013-09-07 15:37:00,
2013-09-07 10:38:00,80.6,69.9,29.81,West,279,2.0,10.0,70,0.00,,,0.00,209,Wunderground v.1.15,2013-09-07 15:38:00,
2013-09-07 10:40:00,80.8,69.7,29.81,WNW,286,3.0,4.0,69,0.00,,,0.00,243,Wunderground v.1.15,2013-09-07 15:40:00,
2013-09-07 10:41:00,80.9,69.8,29.81,WNW,295,6.0,6.0,69,0.00,,,0.00,288,Wunderground v.1.15,2013-09-07 15:41:00,
2013-09-07 10:45:00,81.2,70.1,29.80,WSW,258,3.0,6.0,69,0.00,,,0.00,294,Wunderground v.1.15,2013-09-07 15:45:00,
2013-09-07 10:46:00,81.2,70.1,29.80,WSW,243,2.0,6.0,69,0.00,,,0.00,318,Wunderground v.1.15,2013-09-07 15:46:00,
2013-09-07 10:47:00,81.3,69.7,29.80,WSW,248,3.0,6.0,68,0.00,,,0.00,285,Wunderground v.1.15,2013-09-07 15:47:00,
2013-09-07 10:51:00,81.6,70.4,29.80,WSW,247,0.0,3.0,69,0.00,,,0.00,313,Wunderground v.1.15,2013-09-07 15:51:00,
2013-09-07 10:52:00,81.7,70.5,29.81,WSW,250,2.0,3.0,69,0.00,,,0.00,316,Wunderground v.1.15,2013-09-07 15:52:00,
2013-09-07 10:53:00,81.8,70.6,29.81,West,274,5.0,5.0,69,0.00,,,0.00,339,Wunderground v.1.15,2013-09-07 15:53:00,
2013-09-07 10:56:00,82.2,71.0,29.81,West,279,4.0,5.0,69,0.00,,,0.00,373,Wunderground v.1.15,2013-09-07 15:56:00,
2013-09-07 10:58:00,82.3,70.7,29.81,West,266,6.0,6.0,68,0.00,,,0.00,225,Wunderground v.1.15,2013-09-07 15:58:00,
2013-09-07 10:59:00,82.2,69.7,29.81,West,260,4.0,6.0,66,0.00,,,0.00,213,Wunderground v.1.15,2013-09-07 15:59:00,
2013-09-07 11:01:00,82.0,70.0,29.81,West,270,4.0,4.0,67,0.00,,,0.00,229,Wunderground v.1.15,2013-09-07 16:01:00,
2013-09-07 11:03:00,81.9,69.9,29.81,WSW,255,3.0,6.0,67,0.00,,,0.00,327,Wunderground v.1.15,2013-09-07 16:03:00,
2013-09-07 11:04:00,81.8,70.6,29.81,WSW,253,2.0,6.0,69,0.00,,,0.00,251,Wunderground v.1.15,2013-09-07 16:04:00,
2013-09-07 11:06:00,81.6,70.0,29.80,WSW,239,0.0,6.0,68,0.00,,,0.00,257,Wunderground v.1.15,2013-09-07 16:06:00,
2013-09-07 11:07:00,81.7,70.1,29.80,SW,217,3.0,6.0,68,0.00,,,0.00,257,Wunderground v.1.15,2013-09-07 16:07:00,
2013-09-07 11:08:00,81.8,70.2,29.80,SW,217,2.0,6.0,68,0.00,,,0.00,258,Wunderground v.1.15,2013-09-07 16:08:00,
2013-09-07 11:09:00,81.9,70.3,29.80,SW,217,0.0,6.0,68,0.00,,,0.00,348,Wunderground v.1.15,2013-09-07 16:09:00,
2013-09-07 11:12:00,82.2,71.0,29.79,SW,217,0.0,2.0,69,0.00,,,0.00,279,Wunderground v.1.15,2013-09-07 16:12:00,
2013-09-07 11:13:00,82.4,71.2,29.79,SW,217,0.0,3.0,69,0.00,,,0.00,844,Wunderground v.1.15,2013-09-07 16:13:00,
2013-09-07 11:14:00,82.5,71.7,29.79,SW,217,2.0,3.0,70,0.00,,,0.00,844,Wunderground v.1.15,2013-09-07 16:14:00,
2013-09-07 11:15:00,83.2,72.4,29.79,SW,217,2.0,4.0,70,0.00,,,0.00,891,Wunderground v.1.15,2013-09-07 16:15:00,
2013-09-07 11:17:00,83.9,71.8,29.79,SSW,209,4.0,4.0,67,0.00,,,0.00,902,Wunderground v.1.15,2013-09-07 16:17:00,
2013-09-07 11:18:00,84.5,72.3,29.79,SSW,199,1.0,4.0,67,0.00,,,0.00,932,Wunderground v.1.15,2013-09-07 16:18:00,
2013-09-07 11:19:00,84.6,72.0,29.79,South,188,3.0,4.0,66,0.00,,,0.00,949,Wunderground v.1.15,2013-09-07 16:19:00,
2013-09-07 11:20:00,85.1,72.9,29.79,SSW,211,6.0,6.0,67,0.00,,,0.00,967,Wunderground v.1.15,2013-09-07 16:20:00,
2013-09-07 11:22:00,85.6,71.6,29.79,SSW,192,2.0,6.0,63,0.00,,,0.00,997,Wunderground v.1.15,2013-09-07 16:22:00,
2013-09-07 11:25:00,86.0,72.9,29.79,South,173,5.0,6.0,65,0.00,,,0.00,659,Wunderground v.1.15,2013-09-07 16:25:00,
2013-09-07 11:26:00,86.1,71.6,29.79,South,190,4.0,6.0,62,0.00,,,0.00,659,Wunderground v.1.15,2013-09-07 16:26:00,
2013-09-07 11:27:00,85.9,71.4,29.78,South,183,7.0,7.0,62,0.00,,,0.00,659,Wunderground v.1.15,2013-09-07 16:27:00,
2013-09-07 11:28:00,85.7,71.2,29.78,SSE,160,3.0,7.0,62,0.00,,,0.00,659,Wunderground v.1.15,2013-09-07 16:28:00,
2013-09-07 11:31:00,85.6,71.6,29.78,South,177,9.0,9.0,63,0.00,,,0.00,369,Wunderground v.1.15,2013-09-07 16:31:00,
2013-09-07 11:32:00,85.3,70.8,29.77,SSW,201,4.0,9.0,62,0.00,,,0.00,334,Wunderground v.1.15,2013-09-07 16:32:00,
2013-09-07 11:33:00,85.2,70.7,29.77,SSE,167,4.0,9.0,62,0.00,,,0.00,334,Wunderground v.1.15,2013-09-07 16:33:00,
2013-09-07 11:35:00,84.8,71.3,29.77,SSW,212,5.0,9.0,64,0.00,,,0.00,315,Wunderground v.1.15,2013-09-07 16:35:00,
2013-09-07 11:37:00,84.3,71.2,29.77,SSW,193,3.0,9.0,65,0.00,,,0.00,301,Wunderground v.1.15,2013-09-07 16:37:00,
2013-09-07 11:38:00,84.3,71.2,29.77,SSW,198,1.0,9.0,65,0.00,,,0.00,304,Wunderground v.1.15,2013-09-07 16:38:00,
2013-09-07 11:39:00,84.2,72.0,29.77,South,188,4.0,9.0,67,0.00,,,0.00,315,Wunderground v.1.15,2013-09-07 16:39:00,
2013-09-07 11:41:00,84.1,71.5,29.77,SSW,195,2.0,5.0,66,0.00,,,0.00,345,Wunderground v.1.15,2013-09-07 16:41:00,
2013-09-07 11:43:00,84.1,71.5,29.77,South,175,1.0,5.0,66,0.00,,,0.00,415,Wunderground v.1.15,2013-09-07 16:43:00,
2013-09-07 11:45:00,84.4,71.3,29.77,South,169,3.0,5.0,65,0.00,,,0.00,432,Wunderground v.1.15,2013-09-07 16:45:00,
2013-09-07 11:46:00,84.5,71.9,29.77,South,175,2.0,5.0,66,0.00,,,0.00,439,Wunderground v.1.15,2013-09-07 16:46:00,
2013-09-07 11:50:00,85.0,71.9,29.77,South,188,0.0,8.0,65,0.00,,,0.00,374,Wunderground v.1.15,2013-09-07 16:50:00,
2013-09-07 11:51:00,85.1,72.5,29.77,SSW,197,5.0,5.0,66,0.00,,,0.00,357,Wunderground v.1.15,2013-09-07 16:51:00,
2013-09-07 11:52:00,85.0,72.4,29.77,SSW,196,2.0,5.0,66,0.00,,,0.00,357,Wunderground v.1.15,2013-09-07 16:52:00,
2013-09-07 11:56:00,85.1,72.5,29.76,South,191,4.0,5.0,66,0.00,,,0.00,383,Wunderground v.1.15,2013-09-07 16:56:00,
2013-09-07 11:57:00,85.1,72.0,29.76,South,184,1.0,7.0,65,0.00,,,0.00,376,Wunderground v.1.15,2013-09-07 16:57:00,
2013-09-07 11:58:00,85.1,72.0,29.76,South,188,2.0,7.0,65,0.00,,,0.00,376,Wunderground v.1.15,2013-09-07 16:58:00,
2013-09-07 12:01:00,85.2,72.6,29.76,South,179,6.0,6.0,66,0.00,,,0.00,357,Wunderground v.1.15,2013-09-07 17:01:00,
2013-09-07 12:03:00,85.2,71.6,29.76,South,186,3.0,6.0,64,0.00,,,0.00,341,Wunderground v.1.15,2013-09-07 17:03:00,
2013-09-07 12:04:00,85.2,71.2,29.76,SSW,198,2.0,6.0,63,0.00,,,0.00,311,Wunderground v.1.15,2013-09-07 17:04:00,
2013-09-07 12:07:00,85.1,71.5,29.76,SSW,208,4.0,6.0,64,0.00,,,0.00,345,Wunderground v.1.15,2013-09-07 17:07:00,
2013-09-07 12:08:00,85.2,71.6,29.76,SSW,202,4.0,6.0,64,0.00,,,0.00,371,Wunderground v.1.15,2013-09-07 17:08:00,
2013-09-07 12:09:00,85.2,71.2,29.76,SSW,209,3.0,6.0,63,0.00,,,0.00,455,Wunderground v.1.15,2013-09-07 17:09:00,
2013-09-07 12:10:00,85.3,71.3,29.76,SSW,201,3.0,4.0,63,0.00,,,0.00,431,Wunderground v.1.15,2013-09-07 17:10:00,
2013-09-07 12:12:00,86.0,71.5,29.77,SW,214,4.0,5.0,62,0.00,,,0.00,967,Wunderground v.1.15,2013-09-07 17:12:00,
2013-09-07 12:13:00,86.6,72.5,29.77,SSW,196,3.0,5.0,63,0.00,,,0.00,967,Wunderground v.1.15,2013-09-07 17:13:00,
2013-09-07 12:14:00,86.8,72.7,29.77,SW,214,3.0,5.0,63,0.00,,,0.00,967,Wunderground v.1.15,2013-09-07 17:14:00,
2013-09-07 12:17:00,87.5,71.9,29.77,SSW,206,2.0,6.0,60,0.00,,,0.00,346,Wunderground v.1.15,2013-09-07 17:17:00,
2013-09-07 12:19:00,87.5,72.4,29.77,SW,224,4.0,6.0,61,0.00,,,0.00,334,Wunderground v.1.15,2013-09-07 17:19:00,
2013-09-07 12:21:00,87.3,72.2,29.77,WSW,240,4.0,5.0,61,0.00,,,0.00,334,Wunderground v.1.15,2013-09-07 17:21:00,
2013-09-07 12:22:00,87.1,71.0,29.77,WSW,247,1.0,5.0,59,0.00,,,0.00,341,Wunderground v.1.15,2013-09-07 17:22:00,
2013-09-07 12:23:00,87.0,70.9,29.77,SW,234,0.0,5.0,59,0.00,,,0.00,343,Wunderground v.1.15,2013-09-07 17:23:00,
2013-09-07 12:24:00,86.9,70.8,29.78,SW,234,0.0,5.0,59,0.00,,,0.00,346,Wunderground v.1.15,2013-09-07 17:24:00,
2013-09-07 12:25:00,86.9,71.8,29.78,SW,234,0.0,5.0,61,0.00,,,0.00,352,Wunderground v.1.15,2013-09-07 17:25:00,
2013-09-07 12:27:00,86.9,71.8,29.78,SW,234,0.0,5.0,61,0.00,,,0.00,359,Wunderground v.1.15,2013-09-07 17:27:00,
2013-09-07 12:28:00,87.0,71.9,29.78,WSW,245,2.0,5.0,61,0.00,,,0.00,371,Wunderground v.1.15,2013-09-07 17:28:00,
2013-09-07 12:30:00,86.9,71.3,29.78,WSW,246,1.0,1.0,60,0.00,,,0.00,339,Wunderground v.1.15,2013-09-07 17:30:00,
2013-09-07 12:33:00,86.8,72.2,29.78,WSW,252,4.0,4.0,62,0.00,,,0.00,315,Wunderground v.1.15,2013-09-07 17:33:00,
2013-09-07 12:38:00,86.5,71.9,29.78,WSW,258,2.0,5.0,62,0.00,,,0.00,316,Wunderground v.1.15,2013-09-07 17:38:00,
2013-09-07 12:39:00,86.5,71.9,29.78,WSW,257,3.0,5.0,62,0.00,,,0.00,320,Wunderground v.1.15,2013-09-07 17:39:00,
2013-09-07 12:41:00,86.3,72.2,29.78,West,259,3.0,4.0,63,0.00,,,0.00,336,Wunderground v.1.15,2013-09-07 17:41:00,
2013-09-07 12:43:00,86.4,71.8,29.77,West,260,1.0,4.0,62,0.00,,,0.00,383,Wunderground v.1.15,2013-09-07 17:43:00,
2013-09-07 12:44:00,86.4,71.8,29.77,WSW,257,4.0,4.0,62,0.00,,,0.00,373,Wunderground v.1.15,2013-09-07 17:44:00,
2013-09-07 12:46:00,86.6,72.0,29.77,WSW,242,3.0,5.0,62,0.00,,,0.00,346,Wunderground v.1.15,2013-09-07 17:46:00,
2013-09-07 12:47:00,86.6,72.0,29.77,WSW,241,3.0,5.0,62,0.00,,,0.00,334,Wunderground v.1.15,2013-09-07 17:47:00,
2013-09-07 12:48:00,86.6,71.1,29.77,WSW,241,2.0,5.0,60,0.00,,,0.00,329,Wunderground v.1.15,2013-09-07 17:48:00,
2013-09-07 12:49:00,86.6,72.0,29.77,WSW,241,2.0,5.0,62,0.00,,,0.00,329,Wunderground v.1.15,2013-09-07 17:49:00,
2013-09-07 12:52:00,86.6,71.5,29.77,WSW,238,4.0,4.0,61,0.00,,,0.00,362,Wunderground v.1.15,2013-09-07 17:52:00,
2013-09-07 12:53:00,86.6,71.5,29.77,WSW,238,3.0,4.0,61,0.00,,,0.00,392,Wunderground v.1.15,2013-09-07 17:53:00,
2013-09-07 12:55:00,86.6,72.0,29.78,WSW,254,3.0,4.0,62,0.00,,,0.00,431,Wunderground v.1.15,2013-09-07 17:55:00,
2013-09-07 12:58:00,87.2,71.6,29.78,West,259,5.0,5.0,60,0.00,,,0.00,439,Wunderground v.1.15,2013-09-07 17:58:00,
2013-09-07 12:59:00,87.3,71.7,29.78,WSW,244,5.0,5.0,60,0.00,,,0.00,439,Wunderground v.1.15,2013-09-07 17:59:00,
2013-09-07 13:00:00,87.3,72.2,29.77,West,263,4.0,4.0,61,0.00,,,0.00,469,Wunderground v.1.15,2013-09-07 18:00:00,
2013-09-07 13:03:00,87.2,71.6,29.77,SW,229,4.0,4.0,60,0.00,,,0.00,404,Wunderground v.1.15,2013-09-07 18:03:00,
2013-09-07 13:04:00,87.2,70.6,29.77,WSW,244,4.0,5.0,58,0.00,,,0.00,315,Wunderground v.1.15,2013-09-07 18:04:00,
2013-09-07 13:05:00,87.2,70.6,29.77,WSW,241,2.0,5.0,58,0.00,,,0.00,297,Wunderground v.1.15,2013-09-07 18:05:00,
2013-09-07 13:06:00,87.0,71.4,29.77,WSW,241,1.0,5.0,60,0.00,,,0.00,285,Wunderground v.1.15,2013-09-07 18:06:00,
2013-09-07 13:10:00,86.7,70.7,29.78,West,271,4.0,4.0,59,0.00,,,0.00,272,Wunderground v.1.15,2013-09-07 18:10:00,
2013-09-07 13:11:00,86.6,71.1,29.78,West,273,1.0,4.0,60,0.00,,,0.00,278,Wunderground v.1.15,2013-09-07 18:11:00,
2013-09-07 13:12:00,86.6,71.5,29.78,West,273,1.0,4.0,61,0.00,,,0.00,283,Wunderground v.1.15,2013-09-07 18:12:00,
2013-09-07 13:16:00,86.7,72.6,29.77,West,276,2.0,4.0,63,0.00,,,0.00,392,Wunderground v.1.15,2013-09-07 18:16:00,
2013-09-07 13:17:00,86.9,71.8,29.77,West,276,0.0,4.0,61,0.00,,,0.00,418,Wunderground v.1.15,2013-09-07 18:17:00,
2013-09-07 13:18:00,87.0,71.9,29.77,West,276,0.0,4.0,61,0.00,,,0.00,366,Wunderground v.1.15,2013-09-07 18:18:00,
2013-09-07 13:21:00,87.5,71.4,29.77,WNW,291,0.0,4.0,59,0.00,,,0.00,387,Wunderground v.1.15,2013-09-07 18:21:00,
2013-09-07 13:23:00,88.0,72.4,29.77,WNW,291,0.0,4.0,60,0.00,,,0.00,905,Wunderground v.1.15,2013-09-07 18:23:00,
2013-09-07 13:24:00,88.3,73.1,29.77,WNW,291,2.0,4.0,61,0.00,,,0.00,833,Wunderground v.1.15,2013-09-07 18:24:00,
2013-09-07 13:25:00,88.5,72.3,29.77,WNW,292,3.0,4.0,59,0.00,,,0.00,833,Wunderground v.1.15,2013-09-07 18:25:00,
2013-09-07 13:26:00,88.5,70.8,29.77,WNW,292,0.0,4.0,56,0.00,,,0.00,478,Wunderground v.1.15,2013-09-07 18:26:00,
2013-09-07 13:28:00,88.5,71.3,29.77,WNW,291,1.0,4.0,57,0.00,,,0.00,464,Wunderground v.1.15,2013-09-07 18:28:00,
2013-09-07 13:29:00,88.5,71.3,29.77,WNW,292,1.0,4.0,57,0.00,,,0.00,464,Wunderground v.1.15,2013-09-07 18:29:00,
2013-09-07 13:30:00,88.6,72.4,29.77,WNW,292,2.0,2.0,59,0.00,,,0.00,497,Wunderground v.1.15,2013-09-07 18:30:00,
2013-09-07 13:31:00,88.7,72.5,29.77,NW,307,6.0,6.0,59,0.00,,,0.00,497,Wunderground v.1.15,2013-09-07 18:31:00,
2013-09-07 13:33:00,88.7,71.5,29.77,WNW,298,4.0,6.0,57,0.00,,,0.00,494,Wunderground v.1.15,2013-09-07 18:33:00,
2013-09-07 13:35:00,88.7,71.5,29.78,WNW,298,0.0,6.0,57,0.00,,,0.00,478,Wunderground v.1.15,2013-09-07 18:35:00,
2013-09-07 13:37:00,88.6,71.4,29.77,WNW,297,5.0,6.0,57,0.00,,,0.00,471,Wunderground v.1.15,2013-09-07 18:37:00,
2013-09-07 13:39:00,88.6,71.4,29.78,WNW,289,2.0,6.0,57,0.00,,,0.00,580,Wunderground v.1.15,2013-09-07 18:39:00,
2013-09-07 13:40:00,88.7,71.5,29.78,WNW,292,2.0,3.0,57,0.00,,,0.00,482,Wunderground v.1.15,2013-09-07 18:40:00,
2013-09-07 13:42:00,88.9,72.2,29.78,WSW,251,1.0,5.0,58,0.00,,,0.00,457,Wunderground v.1.15,2013-09-07 18:42:00,
2013-09-07 13:45:00,88.8,71.6,29.78,West,261,3.0,5.0,57,0.00,,,0.00,552,Wunderground v.1.15,2013-09-07 18:45:00,
2013-09-07 13:46:00,88.8,71.6,29.78,West,260,3.0,5.0,57,0.00,,,0.00,552,Wunderground v.1.15,2013-09-07 18:46:00,
2013-09-07 13:47:00,88.9,71.7,29.78,West,275,2.0,5.0,57,0.00,,,0.00,552,Wunderground v.1.15,2013-09-07 18:47:00,
2013-09-07 13:49:00,89.2,73.0,29.78,West,264,7.0,7.0,59,0.00,,,0.00,496,Wunderground v.1.15,2013-09-07 18:49:00,
2013-09-07 13:51:00,89.3,72.6,29.78,West,274,5.0,6.0,58,0.00,,,0.00,364,Wunderground v.1.15,2013-09-07 18:51:00,
2013-09-07 13:54:00,88.9,71.7,29.78,NW,317,6.0,6.0,57,0.00,,,0.00,323,Wunderground v.1.15,2013-09-07 18:54:00,
2013-09-07 13:55:00,88.8,72.1,29.78,WNW,296,6.0,7.0,58,0.00,,,0.00,320,Wunderground v.1.15,2013-09-07 18:55:00,
2013-09-07 13:56:00,88.6,71.4,29.78,WNW,299,4.0,8.0,57,0.00,,,0.00,325,Wunderground v.1.15,2013-09-07 18:56:00,
2013-09-07 14:00:00,88.3,72.2,29.78,NW,306,4.0,8.0,59,0.00,,,0.00,374,Wunderground v.1.15,2013-09-07 19:00:00,
2013-09-07 14:01:00,88.2,72.6,29.78,WNW,296,6.0,7.0,60,0.00,,,0.00,374,Wunderground v.1.15,2013-09-07 19:01:00,
2013-09-07 14:02:00,88.1,72.0,29.78,NW,304,3.0,7.0,59,0.00,,,0.00,404,Wunderground v.1.15,2013-09-07 19:02:00,
2013-09-07 14:04:00,88.0,71.9,29.78,NW,313,3.0,7.0,59,0.00,,,0.00,420,Wunderground v.1.15,2013-09-07 19:04:00,
2013-09-07 14:06:00,87.9,72.3,29.77,North,351,1.0,7.0,60,0.00,,,0.00,462,Wunderground v.1.15,2013-09-07 19:06:00,
2013-09-07 14:07:00,87.9,72.8,29.77,NW,322,4.0,7.0,61,0.00,,,0.00,499,Wunderground v.1.15,2013-09-07 19:07:00,
2013-09-07 14:08:00,88.0,72.9,29.77,NW,317,2.0,7.0,61,0.00,,,0.00,527,Wunderground v.1.15,2013-09-07 19:08:00,
2013-09-07 14:09:00,88.6,73.4,29.77,NW,325,2.0,7.0,61,0.00,,,0.00,527,Wunderground v.1.15,2013-09-07 19:09:00,
2013-09-07 14:11:00,89.2,74.0,29.77,NW,306,4.0,5.0,61,0.00,,,0.00,770,Wunderground v.1.15,2013-09-07 19:11:00,
2013-09-07 14:12:00,89.5,74.8,29.77,NW,318,2.0,5.0,62,0.00,,,0.00,1056,Wunderground v.1.15,2013-09-07 19:12:00,
2013-09-07 14:15:00,90.3,73.5,29.77,NW,313,4.0,5.0,58,0.00,,,0.00,1016,Wunderground v.1.15,2013-09-07 19:15:00,
2013-09-07 14:17:00,90.4,73.1,29.78,NW,310,3.0,6.0,57,0.00,,,0.00,1016,Wunderground v.1.15,2013-09-07 19:17:00,
2013-09-07 14:18:00,90.5,72.1,29.78,WNW,290,6.0,8.0,55,0.00,,,0.00,573,Wunderground v.1.15,2013-09-07 19:18:00,
2013-09-07 14:20:00,90.7,72.8,29.77,NW,325,3.0,4.0,56,0.00,,,0.00,863,Wunderground v.1.15,2013-09-07 19:20:00,
2013-09-07 14:22:00,90.9,73.6,29.77,WNW,300,4.0,8.0,57,0.00,,,0.00,923,Wunderground v.1.15,2013-09-07 19:22:00,
2013-09-07 14:23:00,90.9,73.0,29.77,NW,305,2.0,8.0,56,0.00,,,0.00,492,Wunderground v.1.15,2013-09-07 19:23:00,
2013-09-07 14:25:00,90.6,72.8,29.77,WNW,303,6.0,8.0,56,0.00,,,0.00,410,Wunderground v.1.15,2013-09-07 19:25:00,
2013-09-07 14:27:00,90.3,73.0,29.77,NW,323,5.0,9.0,57,0.00,,,0.00,575,Wunderground v.1.15,2013-09-07 19:27:00,
2013-09-07 14:29:00,90.1,73.3,29.77,WNW,298,5.0,9.0,58,0.00,,,0.00,575,Wunderground v.1.15,2013-09-07 19:29:00,
2013-09-07 14:30:00,90.2,73.4,29.78,NNW,336,3.0,7.0,58,0.00,,,0.00,575,Wunderground v.1.15,2013-09-07 19:30:00,
2013-09-07 14:31:00,90.4,73.1,29.78,WNW,298,4.0,7.0,57,0.00,,,0.00,698,Wunderground v.1.15,2013-09-07 19:31:00,
2013-09-07 14:34:00,90.9,74.1,29.78,NNW,329,5.0,9.0,58,0.00,,,0.00,698,Wunderground v.1.15,2013-09-07 19:34:00,
2013-09-07 14:35:00,90.9,74.1,29.78,NW,304,7.0,9.0,58,0.00,,,0.00,698,Wunderground v.1.15,2013-09-07 19:35:00,
2013-09-07 14:36:00,90.8,72.9,29.78,NW,321,4.0,9.0,56,0.00,,,0.00,698,Wunderground v.1.15,2013-09-07 19:36:00,
2013-09-07 14:37:00,90.6,72.8,29.78,NNW,339,1.0,10.0,56,0.00,,,0.00,698,Wunderground v.1.15,2013-09-07 19:37:00,
2013-09-07 14:39:00,90.4,73.6,29.78,NNW,333,2.0,10.0,58,0.00,,,0.00,448,Wunderground v.1.15,2013-09-07 19:39:00,
2013-09-07 14:42:00,89.8,72.5,29.78,NW,313,4.0,5.0,57,0.00,,,0.00,459,Wunderground v.1.15,2013-09-07 19:42:00,
2013-09-07 14:43:00,89.6,72.9,29.78,North,355,4.0,6.0,58,0.00,,,0.00,478,Wunderground v.1.15,2013-09-07 19:43:00,
2013-09-07 14:44:00,89.4,72.7,29.78,WNW,299,3.0,6.0,58,0.00,,,0.00,483,Wunderground v.1.15,2013-09-07 19:44:00,
2013-09-07 14:46:00,89.2,73.0,29.78,NW,313,2.0,6.0,59,0.00,,,0.00,443,Wunderground v.1.15,2013-09-07 19:46:00,
2013-09-07 14:47:00,89.2,73.5,29.78,NW,321,1.0,6.0,60,0.00,,,0.00,432,Wunderground v.1.15,2013-09-07 19:47:00,
2013-09-07 14:49:00,89.0,73.3,29.78,NW,313,4.0,6.0,60,0.00,,,0.00,429,Wunderground v.1.15,2013-09-07 19:49:00,
2013-09-07 14:50:00,89.0,73.3,29.78,WNW,300,7.0,7.0,60,0.00,,,0.00,431,Wunderground v.1.15,2013-09-07 19:50:00,
2013-09-07 14:52:00,88.8,73.1,29.78,NW,321,1.0,7.0,60,0.00,,,0.00,431,Wunderground v.1.15,2013-09-07 19:52:00,
2013-09-07 14:54:00,88.7,73.5,29.78,NNW,332,1.0,7.0,61,0.00,,,0.00,381,Wunderground v.1.15,2013-09-07 19:54:00,
2013-09-07 14:56:00,88.6,72.4,29.78,NNE,15,6.0,7.0,59,0.00,,,0.00,353,Wunderground v.1.15,2013-09-07 19:56:00,
2013-09-07 14:57:00,88.5,72.3,29.78,NNE,12,1.0,7.0,59,0.00,,,0.00,339,Wunderground v.1.15,2013-09-07 19:57:00,
2013-09-07 14:58:00,88.4,73.2,29.78,NW,304,3.0,7.0,61,0.00,,,0.00,302,Wunderground v.1.15,2013-09-07 19:58:00,
2013-09-07 14:59:00,88.4,73.2,29.78,NNW,344,0.0,7.0,61,0.00,,,0.00,302,Wunderground v.1.15,2013-09-07 19:59:00,
2013-09-07 15:00:00,88.3,73.6,29.78,NNW,338,1.0,3.0,62,0.00,,,0.00,267,Wunderground v.1.15,2013-09-07 20:00:00,
2013-09-07 15:02:00,88.1,72.5,29.78,WNW,297,3.0,3.0,60,0.00,,,0.00,239,Wunderground v.1.15,2013-09-07 20:02:00,
2013-09-07 15:03:00,87.8,72.7,29.78,NW,321,3.0,4.0,61,0.00,,,0.00,230,Wunderground v.1.15,2013-09-07 20:03:00,
2013-09-07 15:04:00,87.7,72.6,29.78,NW,325,2.0,4.0,61,0.00,,,0.00,223,Wunderground v.1.15,2013-09-07 20:04:00,
2013-09-07 15:06:00,87.4,72.8,29.77,NNW,339,3.0,4.0,62,0.00,,,0.00,206,Wunderground v.1.15,2013-09-07 20:06:00,
2013-09-07 15:07:00,87.3,72.7,29.77,North,360,2.0,4.0,62,0.00,,,0.00,199,Wunderground v.1.15,2013-09-07 20:07:00,
2013-09-07 15:08:00,87.2,72.6,29.77,North,360,1.0,4.0,62,0.00,,,0.00,193,Wunderground v.1.15,2013-09-07 20:08:00,
2013-09-07 15:11:00,86.8,72.7,29.77,NNW,327,0.0,2.0,63,0.00,,,0.00,174,Wunderground v.1.15,2013-09-07 20:11:00,
2013-09-07 15:13:00,86.6,72.0,29.77,NW,317,0.0,3.0,62,0.00,,,0.00,171,Wunderground v.1.15,2013-09-07 20:13:00,
2013-09-07 15:16:00,86.4,72.3,29.77,NNW,336,2.0,3.0,63,0.00,,,0.00,165,Wunderground v.1.15,2013-09-07 20:16:00,
2013-09-07 15:18:00,86.2,72.1,29.78,NW,305,4.0,4.0,63,0.00,,,0.00,163,Wunderground v.1.15,2013-09-07 20:18:00,
2013-09-07 15:19:00,86.2,72.1,29.77,NW,307,2.0,4.0,63,0.00,,,0.00,163,Wunderground v.1.15,2013-09-07 20:19:00,
2013-09-07 15:22:00,86.0,72.4,29.77,North,9,0.0,2.0,64,0.00,,,0.00,165,Wunderground v.1.15,2013-09-07 20:22:00,
2013-09-07 15:24:00,86.0,72.4,29.77,NNW,344,2.0,3.0,64,0.00,,,0.00,167,Wunderground v.1.15,2013-09-07 20:24:00,
2013-09-07 15:25:00,85.9,72.3,29.77,North,355,0.0,3.0,64,0.00,,,0.00,171,Wunderground v.1.15,2013-09-07 20:25:00,
2013-09-07 15:28:00,85.8,71.7,29.77,NNE,20,3.0,3.0,63,0.00,,,0.00,171,Wunderground v.1.15,2013-09-07 20:28:00,
2013-09-07 15:29:00,85.8,71.7,29.77,NNE,20,2.0,3.0,63,0.00,,,0.00,171,Wunderground v.1.15,2013-09-07 20:29:00,
2013-09-07 15:31:00,85.7,72.1,29.77,North,355,2.0,2.0,64,0.00,,,0.00,169,Wunderground v.1.15,2013-09-07 20:31:00,
2013-09-07 15:34:00,85.6,72.0,29.77,NNE,17,1.0,4.0,64,0.00,,,0.00,153,Wunderground v.1.15,2013-09-07 20:34:00,
2013-09-07 15:35:00,85.5,71.9,29.77,NNE,17,1.0,4.0,64,0.00,,,0.00,153,Wunderground v.1.15,2013-09-07 20:35:00,
2013-09-07 15:36:00,85.5,72.4,29.77,NNE,17,3.0,4.0,65,0.00,,,0.00,153,Wunderground v.1.15,2013-09-07 20:36:00,
2013-09-07 15:38:00,85.2,71.2,29.77,NNE,13,3.0,5.0,63,0.00,,,0.00,153,Wunderground v.1.15,2013-09-07 20:38:00,
2013-09-07 15:41:00,85.0,71.0,29.77,NNE,27,3.0,6.0,63,0.00,,,0.00,172,Wunderground v.1.15,2013-09-07 20:41:00,
2013-09-07 15:42:00,84.9,71.4,29.77,North,10,1.0,6.0,64,0.00,,,0.00,183,Wunderground v.1.15,2013-09-07 20:42:00,
2013-09-07 15:43:00,84.8,71.3,29.77,North,10,1.0,6.0,64,0.00,,,0.00,202,Wunderground v.1.15,2013-09-07 20:43:00,
2013-09-07 15:45:00,84.9,71.4,29.77,North,9,1.0,6.0,64,0.00,,,0.00,229,Wunderground v.1.15,2013-09-07 20:45:00,
2013-09-07 15:46:00,84.9,71.4,29.77,North,10,1.0,6.0,64,0.00,,,0.00,229,Wunderground v.1.15,2013-09-07 20:46:00,
2013-09-07 15:48:00,84.9,70.9,29.77,NNE,22,3.0,6.0,63,0.00,,,0.00,234,Wunderground v.1.15,2013-09-07 20:48:00,
2013-09-07 15:49:00,84.9,70.9,29.77,NNE,22,2.0,6.0,63,0.00,,,0.00,232,Wunderground v.1.15,2013-09-07 20:49:00,
2013-09-07 15:52:00,84.9,71.4,29.77,NNE,22,2.0,4.0,64,0.00,,,0.00,218,Wunderground v.1.15,2013-09-07 20:52:00,
2013-09-07 15:53:00,84.9,70.9,29.76,NNE,22,1.0,4.0,63,0.00,,,0.00,214,Wunderground v.1.15,2013-09-07 20:53:00,
2013-09-07 15:54:00,84.8,71.3,29.76,NNE,22,1.0,4.0,64,0.00,,,0.00,204,Wunderground v.1.15,2013-09-07 20:54:00,
2013-09-07 15:57:00,84.8,71.3,29.76,NNE,21,2.0,4.0,64,0.00,,,0.00,186,Wunderground v.1.15,2013-09-07 20:57:00,
2013-09-07 15:58:00,84.8,71.3,29.76,NNE,21,1.0,4.0,64,0.00,,,0.00,186,Wunderground v.1.15,2013-09-07 20:58:00,
2013-09-07 15:59:00,84.8,71.3,29.76,NNE,21,2.0,4.0,64,0.00,,,0.00,176,Wunderground v.1.15,2013-09-07 20:59:00,
2013-09-07 16:00:00,84.8,71.7,29.76,NNE,21,0.0,3.0,65,0.00,,,0.00,172,Wunderground v.1.15,2013-09-07 21:00:00,
2013-09-07 16:01:00,84.8,71.7,29.76,NNE,21,0.0,3.0,65,0.00,,,0.00,167,Wunderground v.1.15,2013-09-07 21:01:00,
2013-09-07 16:02:00,84.8,71.3,29.76,NNE,24,4.0,4.0,64,0.00,,,0.00,156,Wunderground v.1.15,2013-09-07 21:02:00,
2013-09-07 16:04:00,84.8,70.8,29.75,NE,49,3.0,4.0,63,0.00,,,0.00,149,Wunderground v.1.15,2013-09-07 21:04:00,
2013-09-07 16:05:00,84.8,71.3,29.75,NE,36,1.0,4.0,64,0.00,,,0.00,137,Wunderground v.1.15,2013-09-07 21:05:00,
2013-09-07 16:08:00,84.8,71.3,29.75,NE,36,0.0,4.0,64,0.00,,,0.00,118,Wunderground v.1.15,2013-09-07 21:08:00,
2013-09-07 16:10:00,84.7,71.2,29.75,NE,36,2.0,2.0,64,0.00,,,0.00,107,Wunderground v.1.15,2013-09-07 21:10:00,
2013-09-07 16:13:00,84.3,71.2,29.75,NNE,33,1.0,2.0,65,0.00,,,0.00,97,Wunderground v.1.15,2013-09-07 21:13:00,
2013-09-07 16:14:00,84.3,71.2,29.75,NNE,33,1.0,2.0,65,0.00,,,0.00,95,Wunderground v.1.15,2013-09-07 21:14:00,
2013-09-07 16:15:00,84.3,71.2,29.75,NNE,33,0.0,2.0,65,0.00,,,0.00,95,Wunderground v.1.15,2013-09-07 21:15:00,
2013-09-07 16:18:00,84.0,71.4,29.75,NNE,33,0.0,2.0,66,0.00,,,0.00,104,Wunderground v.1.15,2013-09-07 21:18:00,
2013-09-07 16:20:00,84.0,71.0,29.75,NNE,33,0.0,1.0,65,0.00,,,0.00,111,Wunderground v.1.15,2013-09-07 21:20:00,
2013-09-07 16:22:00,83.9,71.3,29.75,NNE,32,3.0,3.0,66,0.00,,,0.00,118,Wunderground v.1.15,2013-09-07 21:22:00,
2013-09-07 16:24:00,83.9,71.3,29.75,NNE,31,2.0,3.0,66,0.00,,,0.00,135,Wunderground v.1.15,2013-09-07 21:24:00,
2013-09-07 16:27:00,84.0,71.4,29.75,NNE,31,0.0,3.0,66,0.00,,,0.00,167,Wunderground v.1.15,2013-09-07 21:27:00,
2013-09-07 16:28:00,84.0,71.0,29.75,NNE,31,0.0,3.0,65,0.00,,,0.00,167,Wunderground v.1.15,2013-09-07 21:28:00,
2013-09-07 16:29:00,84.1,71.5,29.75,NNE,31,0.0,3.0,66,0.00,,,0.00,185,Wunderground v.1.15,2013-09-07 21:29:00,
2013-09-07 16:32:00,84.1,72.0,29.74,NNE,31,0.0,1.0,67,0.00,,,0.00,206,Wunderground v.1.15,2013-09-07 21:32:00,
2013-09-07 16:33:00,84.1,72.0,29.75,NNE,31,0.0,1.0,67,0.00,,,0.00,216,Wunderground v.1.15,2013-09-07 21:33:00,
2013-09-07 16:34:00,84.1,71.5,29.75,NNE,31,0.0,1.0,66,0.00,,,0.00,216,Wunderground v.1.15,2013-09-07 21:34:00,
2013-09-07 16:35:00,84.1,72.0,29.75,NNE,31,0.0,1.0,67,0.00,,,0.00,223,Wunderground v.1.15,2013-09-07 21:35:00,
2013-09-07 16:38:00,84.3,72.1,29.75,NNE,31,2.0,2.0,67,0.00,,,0.00,227,Wunderground v.1.15,2013-09-07 21:38:00,
2013-09-07 16:39:00,84.3,72.1,29.75,NNE,30,2.0,3.0,67,0.00,,,0.00,225,Wunderground v.1.15,2013-09-07 21:39:00,
2013-09-07 16:40:00,84.4,71.8,29.75,NNE,30,0.0,3.0,66,0.00,,,0.00,232,Wunderground v.1.15,2013-09-07 21:40:00,
2013-09-07 16:42:00,84.5,72.3,29.76,NNE,30,0.0,3.0,67,0.00,,,0.00,288,Wunderground v.1.15,2013-09-07 21:42:00,
2013-09-07 16:45:00,84.9,73.6,29.76,NNE,28,0.0,3.0,69,0.00,,,0.00,420,Wunderground v.1.15,2013-09-07 21:45:00,
2013-09-07 16:46:00,85.3,74.0,29.76,NNE,28,0.0,3.0,69,0.00,,,0.00,332,Wunderground v.1.15,2013-09-07 21:46:00,
2013-09-07 16:48:00,85.6,73.4,29.76,NW,322,3.0,3.0,67,0.00,,,0.00,397,Wunderground v.1.15,2013-09-07 21:48:00,
2013-09-07 16:51:00,86.1,73.0,29.76,NNW,327,2.0,2.0,65,0.00,,,0.00,388,Wunderground v.1.15,2013-09-07 21:51:00,
2013-09-07 16:52:00,86.2,72.1,29.76,North,9,3.0,4.0,63,0.00,,,0.00,274,Wunderground v.1.15,2013-09-07 21:52:00,
2013-09-07 16:54:00,86.1,72.5,29.76,NNE,13,3.0,4.0,64,0.00,,,0.00,274,Wunderground v.1.15,2013-09-07 21:54:00,
2013-09-07 16:56:00,86.1,72.0,29.76,North,360,2.0,4.0,63,0.00,,,0.00,241,Wunderground v.1.15,2013-09-07 21:56:00,
2013-09-07 16:58:00,85.9,71.8,29.75,North,5,2.0,4.0,63,0.00,,,0.00,207,Wunderground v.1.15,2013-09-07 21:58:00,
2013-09-07 16:59:00,85.9,71.8,29.75,North,5,1.0,4.0,63,0.00,,,0.00,202,Wunderground v.1.15,2013-09-07 21:59:00,
2013-09-07 17:01:00,85.7,72.1,29.76,North,360,5.0,5.0,64,0.00,,,0.00,197,Wunderground v.1.15,2013-09-07 22:01:00,
2013-09-07 17:04:00,85.4,72.7,29.76,North,5,0.0,5.0,66,0.00,,,0.00,183,Wunderground v.1.15,2013-09-07 22:04:00,
2013-09-07 17:05:00,85.3,72.6,29.75,North,5,2.0,5.0,66,0.00,,,0.00,167,Wunderground v.1.15,2013-09-07 22:05:00,
2013-09-07 17:06:00,85.2,72.6,29.76,North,5,1.0,5.0,66,0.00,,,0.00,158,Wunderground v.1.15,2013-09-07 22:06:00,
2013-09-07 17:07:00,85.2,72.6,29.76,North,5,1.0,5.0,66,0.00,,,0.00,149,Wunderground v.1.15,2013-09-07 22:07:00,
2013-09-07 17:09:00,85.1,72.5,29.75,North,5,0.0,5.0,66,0.00,,,0.00,134,Wunderground v.1.15,2013-09-07 22:09:00,
2013-09-07 17:11:00,85.0,71.9,29.75,North,360,1.0,3.0,65,0.00,,,0.00,113,Wunderground v.1.15,2013-09-07 22:11:00,
2013-09-07 17:12:00,85.0,71.9,29.75,North,360,1.0,3.0,65,0.00,,,0.00,107,Wunderground v.1.15,2013-09-07 22:12:00,
2013-09-07 17:15:00,84.9,72.3,29.75,North,360,0.0,3.0,66,0.00,,,0.00,91,Wunderground v.1.15,2013-09-07 22:15:00,
2013-09-07 17:17:00,84.6,72.0,29.75,North,360,1.0,3.0,66,0.00,,,0.00,83,Wunderground v.1.15,2013-09-07 22:17:00,
2013-09-07 17:18:00,84.6,72.0,29.75,North,360,1.0,3.0,66,0.00,,,0.00,83,Wunderground v.1.15,2013-09-07 22:18:00,
2013-09-07 17:20:00,84.4,72.2,29.75,North,360,2.0,2.0,67,0.00,,,0.00,79,Wunderground v.1.15,2013-09-07 22:20:00,
2013-09-07 17:21:00,84.4,72.2,29.75,North,360,0.0,2.0,67,0.00,,,0.00,79,Wunderground v.1.15,2013-09-07 22:21:00,
2013-09-07 17:24:00,84.3,72.1,29.75,North,360,0.0,2.0,67,0.00,,,0.00,83,Wunderground v.1.15,2013-09-07 22:24:00,
2013-09-07 17:26:00,84.2,72.0,29.75,North,360,1.0,2.0,67,0.00,,,0.00,95,Wunderground v.1.15,2013-09-07 22:26:00,
2013-09-07 17:27:00,84.2,72.5,29.75,North,360,0.0,2.0,68,0.00,,,0.00,100,Wunderground v.1.15,2013-09-07 22:27:00,
2013-09-07 17:29:00,84.1,72.4,29.75,North,360,0.0,2.0,68,0.00,,,0.00,111,Wunderground v.1.15,2013-09-07 22:29:00,
2013-09-07 17:30:00,84.1,72.4,29.75,North,5,1.0,3.0,68,0.00,,,0.00,116,Wunderground v.1.15,2013-09-07 22:30:00,
2013-09-07 17:33:00,83.9,72.2,29.75,NNE,28,1.0,3.0,68,0.00,,,0.00,127,Wunderground v.1.15,2013-09-07 22:33:00,
2013-09-07 17:34:00,83.9,72.6,29.75,NNE,28,0.0,3.0,69,0.00,,,0.00,127,Wunderground v.1.15,2013-09-07 22:34:00,
2013-09-07 17:35:00,83.8,73.0,29.75,NNE,28,1.0,3.0,70,0.00,,,0.00,128,Wunderground v.1.15,2013-09-07 22:35:00,
2013-09-07 17:36:00,83.8,73.0,29.75,NNE,28,2.0,3.0,70,0.00,,,0.00,132,Wunderground v.1.15,2013-09-07 22:36:00,
2013-09-07 17:38:00,83.5,73.5,29.76,NNE,28,0.0,3.0,72,0.00,,,0.00,148,Wunderground v.1.15,2013-09-07 22:38:00,
2013-09-07 17:39:00,83.5,73.5,29.76,NNE,28,0.0,3.0,72,0.00,,,0.00,148,Wunderground v.1.15,2013-09-07 22:39:00,
2013-09-07 17:42:00,83.2,74.4,29.76,NNE,28,1.0,1.0,75,0.00,,,0.00,223,Wunderground v.1.15,2013-09-07 22:42:00,
2013-09-07 17:43:00,83.1,74.4,29.77,NNE,26,0.0,3.0,75,0.00,,,0.00,229,Wunderground v.1.15,2013-09-07 22:43:00,
2013-09-07 17:44:00,83.1,73.9,29.77,NNE,26,0.0,3.0,74,0.00,,,0.00,229,Wunderground v.1.15,2013-09-07 22:44:00,
2013-09-07 17:47:00,83.2,73.6,29.76,NNE,26,2.0,3.0,73,0.00,,,0.00,227,Wunderground v.1.15,2013-09-07 22:47:00,
2013-09-07 17:49:00,83.4,73.4,29.77,NNE,24,2.0,3.0,72,0.00,,,0.00,283,Wunderground v.1.15,2013-09-07 22:49:00,
2013-09-07 17:50:00,83.4,73.4,29.77,NNE,24,1.0,1.0,72,0.00,,,0.00,225,Wunderground v.1.15,2013-09-07 22:50:00,
2013-09-07 17:52:00,83.6,73.2,29.77,NNE,22,1.0,2.0,71,0.00,,,0.00,207,Wunderground v.1.15,2013-09-07 22:52:00,
2013-09-07 17:54:00,83.7,72.9,29.77,NNE,21,0.0,4.0,70,0.00,,,0.00,192,Wunderground v.1.15,2013-09-07 22:54:00,
2013-09-07 17:56:00,83.8,73.0,29.77,NNE,21,0.0,4.0,70,0.00,,,0.00,186,Wunderground v.1.15,2013-09-07 22:56:00,
2013-09-07 18:00:00,83.7,73.3,29.77,NNE,21,1.0,4.0,71,0.00,,,0.00,172,Wunderground v.1.15,2013-09-07 23:00:00,
2013-09-07 18:01:00,83.6,72.8,29.77,NNE,21,2.0,2.0,70,0.00,,,0.00,171,Wunderground v.1.15,2013-09-07 23:01:00,
2013-09-07 18:02:00,83.6,72.3,29.78,NNE,15,3.0,3.0,69,0.00,,,0.00,165,Wunderground v.1.15,2013-09-07 23:02:00,
2013-09-07 18:06:00,83.4,72.2,29.78,NNE,12,3.0,3.0,69,0.00,,,0.00,137,Wunderground v.1.15,2013-09-07 23:06:00,
2013-09-07 18:07:00,83.4,72.2,29.78,NNE,12,2.0,3.0,69,0.00,,,0.00,130,Wunderground v.1.15,2013-09-07 23:07:00,
2013-09-07 18:09:00,83.3,72.5,29.78,North,11,0.0,3.0,70,0.00,,,0.00,109,Wunderground v.1.15,2013-09-07 23:09:00,
2013-09-07 18:12:00,83.1,71.9,29.78,North,5,0.0,2.0,69,0.00,,,0.00,91,Wunderground v.1.15,2013-09-07 23:12:00,
2013-09-07 18:13:00,83.0,71.8,29.78,NNE,15,1.0,3.0,69,0.00,,,0.00,86,Wunderground v.1.15,2013-09-07 23:13:00,
2013-09-07 18:15:00,82.9,71.7,29.78,NNE,15,3.0,3.0,69,0.00,,,0.00,77,Wunderground v.1.15,2013-09-07 23:15:00,
2013-09-07 18:17:00,82.8,71.6,29.78,NNE,15,2.0,3.0,69,0.00,,,0.00,67,Wunderground v.1.15,2013-09-07 23:17:00,
2013-09-07 18:18:00,82.8,71.6,29.78,NNE,15,0.0,3.0,69,0.00,,,0.00,63,Wunderground v.1.15,2013-09-07 23:18:00,
2013-09-07 18:21:00,82.7,71.9,29.78,NNE,15,0.0,1.0,70,0.00,,,0.00,54,Wunderground v.1.15,2013-09-07 23:21:00,
2013-09-07 18:25:00,82.4,71.6,29.78,NNE,15,0.0,1.0,70,0.00,,,0.00,51,Wunderground v.1.15,2013-09-07 23:25:00,
2013-09-07 18:26:00,82.4,71.6,29.78,NNE,15,0.0,1.0,70,0.00,,,0.00,53,Wunderground v.1.15,2013-09-07 23:26:00,
2013-09-07 18:27:00,82.4,71.6,29.78,NNE,15,0.0,1.0,70,0.00,,,0.00,53,Wunderground v.1.15,2013-09-07 23:27:00,
2013-09-07 18:28:00,82.3,72.0,29.78,NNE,15,0.0,1.0,71,0.00,,,0.00,53,Wunderground v.1.15,2013-09-07 23:28:00,
2013-09-07 18:31:00,82.0,71.7,29.78,NNE,15,0.0,0.0,71,0.00,,,0.00,54,Wunderground v.1.15,2013-09-07 23:31:00,
2013-09-07 18:33:00,81.9,72.0,29.78,NNE,15,0.0,0.0,72,0.00,,,0.00,53,Wunderground v.1.15,2013-09-07 23:33:00,
2013-09-07 18:34:00,81.8,71.9,29.78,NNE,15,0.0,0.0,72,0.00,,,0.00,51,Wunderground v.1.15,2013-09-07 23:34:00,
2013-09-07 18:35:00,81.7,71.8,29.78,NNE,15,0.0,0.0,72,0.00,,,0.00,49,Wunderground v.1.15,2013-09-07 23:35:00,
2013-09-07 18:37:00,81.7,71.8,29.78,NNE,15,0.0,0.0,72,0.00,,,0.00,49,Wunderground v.1.15,2013-09-07 23:37:00,
2013-09-07 18:39:00,81.7,71.8,29.78,NNE,15,0.0,0.0,72,0.00,,,0.00,51,Wunderground v.1.15,2013-09-07 23:39:00,
2013-09-07 18:40:00,81.6,71.7,29.78,NNE,15,0.0,0.0,72,0.00,,,0.00,49,Wunderground v.1.15,2013-09-07 23:40:00,
2013-09-07 18:41:00,81.7,71.8,29.78,NNE,15,0.0,0.0,72,0.00,,,0.00,49,Wunderground v.1.15,2013-09-07 23:41:00,
2013-09-07 18:42:00,81.6,71.7,29.78,NNE,15,0.0,0.0,72,0.00,,,0.00,49,Wunderground v.1.15,2013-09-07 23:42:00,
2013-09-07 18:45:00,81.5,72.0,29.78,NNE,15,0.0,0.0,73,0.00,,,0.00,49,Wunderground v.1.15,2013-09-07 23:45:00,
2013-09-07 18:46:00,81.4,71.9,29.78,NNE,15,0.0,0.0,73,0.00,,,0.00,47,Wunderground v.1.15,2013-09-07 23:46:00,
2013-09-07 18:47:00,81.4,71.9,29.78,NNE,15,0.0,0.0,73,0.00,,,0.00,47,Wunderground v.1.15,2013-09-07 23:47:00,
2013-09-07 18:48:00,81.4,71.9,29.78,NNE,15,0.0,0.0,73,0.00,,,0.00,47,Wunderground v.1.15,2013-09-07 23:48:00,
2013-09-07 18:49:00,81.3,71.8,29.78,NNE,15,0.0,0.0,73,0.00,,,0.00,46,Wunderground v.1.15,2013-09-07 23:49:00,
2013-09-07 18:50:00,81.3,71.8,29.78,NNE,15,0.0,0.0,73,0.00,,,0.00,44,Wunderground v.1.15,2013-09-07 23:50:00,
2013-09-07 18:52:00,81.2,72.1,29.78,NNE,15,0.0,0.0,74,0.00,,,0.00,49,Wunderground v.1.15,2013-09-07 23:52:00,
2013-09-07 18:53:00,81.2,72.1,29.78,NNE,15,0.0,0.0,74,0.00,,,0.00,46,Wunderground v.1.15,2013-09-07 23:53:00,
2013-09-07 18:54:00,81.2,72.1,29.78,NNE,15,0.0,0.0,74,0.00,,,0.00,40,Wunderground v.1.15,2013-09-07 23:54:00,
2013-09-07 18:55:00,81.2,71.7,29.78,NNE,15,0.0,0.0,73,0.00,,,0.00,40,Wunderground v.1.15,2013-09-07 23:55:00,
2013-09-07 18:57:00,81.2,71.7,29.78,NNE,15,0.0,0.0,73,0.00,,,0.00,32,Wunderground v.1.15,2013-09-07 23:57:00,
2013-09-07 18:58:00,81.2,71.7,29.78,NNE,15,0.0,0.0,73,0.00,,,0.00,30,Wunderground v.1.15,2013-09-07 23:58:00,
2013-09-07 19:00:00,81.3,71.8,29.78,NNE,15,0.0,0.0,73,0.00,,,0.00,28,Wunderground v.1.15,2013-09-08 00:00:00,
2013-09-07 19:02:00,81.2,71.7,29.78,NNE,15,0.0,0.0,73,0.00,,,0.00,28,Wunderground v.1.15,2013-09-08 00:02:00,
2013-09-07 19:03:00,81.2,71.7,29.78,NNE,15,0.0,0.0,73,0.00,,,0.00,30,Wunderground v.1.15,2013-09-08 00:03:00,
2013-09-07 19:04:00,81.2,71.7,29.78,NNE,15,0.0,0.0,73,0.00,,,0.00,30,Wunderground v.1.15,2013-09-08 00:04:00,
2013-09-07 19:05:00,81.1,71.6,29.78,NNE,15,0.0,0.0,73,0.00,,,0.00,32,Wunderground v.1.15,2013-09-08 00:05:00,
2013-09-07 19:08:00,81.0,71.9,29.78,NNE,15,0.0,0.0,74,0.00,,,0.00,32,Wunderground v.1.15,2013-09-08 00:08:00,
2013-09-07 19:09:00,81.0,71.9,29.78,NNE,15,0.0,0.0,74,0.00,,,0.00,30,Wunderground v.1.15,2013-09-08 00:09:00,
2013-09-07 19:11:00,81.0,71.9,29.78,NNE,15,0.0,0.0,74,0.00,,,0.00,30,Wunderground v.1.15,2013-09-08 00:11:00,
2013-09-07 19:12:00,80.9,71.4,29.78,NNE,15,0.0,0.0,73,0.00,,,0.00,28,Wunderground v.1.15,2013-09-08 00:12:00,
2013-09-07 19:14:00,80.9,71.8,29.78,NNE,15,0.0,0.0,74,0.00,,,0.00,26,Wunderground v.1.15,2013-09-08 00:14:00,
2013-09-07 19:17:00,80.8,72.1,29.78,NNE,15,0.0,0.0,75,0.00,,,0.00,23,Wunderground v.1.15,2013-09-08 00:17:00,
2013-09-07 19:19:00,80.5,72.2,29.78,NNE,15,0.0,0.0,76,0.00,,,0.00,19,Wunderground v.1.15,2013-09-08 00:19:00,
2013-09-07 19:20:00,80.4,72.1,29.78,NNE,15,0.0,0.0,76,0.00,,,0.00,19,Wunderground v.1.15,2013-09-08 00:20:00,
2013-09-07 19:21:00,80.3,72.0,29.79,NNE,15,0.0,0.0,76,0.00,,,0.00,19,Wunderground v.1.15,2013-09-08 00:21:00,
2013-09-07 19:22:00,80.1,71.8,29.79,NNE,15,0.0,0.0,76,0.00,,,0.00,18,Wunderground v.1.15,2013-09-08 00:22:00,
2013-09-07 19:25:00,79.8,71.9,29.79,NNE,15,0.0,0.0,77,0.00,,,0.00,16,Wunderground v.1.15,2013-09-08 00:25:00,
2013-09-07 19:27:00,79.6,71.8,29.79,NNE,15,0.0,0.0,77,0.00,,,0.00,14,Wunderground v.1.15,2013-09-08 00:27:00,
2013-09-07 19:28:00,79.5,72.0,29.79,NNE,15,0.0,0.0,78,0.00,,,0.00,14,Wunderground v.1.15,2013-09-08 00:28:00,
2013-09-07 19:30:00,79.2,71.7,29.79,NNE,15,0.0,0.0,78,0.00,,,0.00,11,Wunderground v.1.15,2013-09-08 00:30:00,
2013-09-07 19:31:00,79.1,71.6,29.79,NNE,15,0.0,0.0,78,0.00,,,0.00,11,Wunderground v.1.15,2013-09-08 00:31:00,
2013-09-07 19:32:00,79.1,71.6,29.79,NNE,15,0.0,0.0,78,0.00,,,0.00,9,Wunderground v.1.15,2013-09-08 00:32:00,
2013-09-07 19:35:00,79.1,71.6,29.79,NNE,15,0.0,0.0,78,0.00,,,0.00,7,Wunderground v.1.15,2013-09-08 00:35:00,
2013-09-07 19:36:00,79.1,71.6,29.79,NNE,15,0.0,0.0,78,0.00,,,0.00,7,Wunderground v.1.15,2013-09-08 00:36:00,
2013-09-07 19:38:00,79.0,71.6,29.79,NNE,15,0.0,0.0,78,0.00,,,0.00,0,Wunderground v.1.15,2013-09-08 00:38:00,
2013-09-07 19:39:00,79.0,71.6,29.79,NNE,15,0.0,0.0,78,0.00,,,0.00,0,Wunderground v.1.15,2013-09-08 00:39:00,
2013-09-07 19:41:00,79.0,71.6,29.79,NNE,15,0.0,0.0,78,0.00,,,0.00,0,Wunderground v.1.15,2013-09-08 00:41:00,
2013-09-07 19:42:00,79.0,71.6,29.79,NNE,15,0.0,0.0,78,0.00,,,0.00,0,Wunderground v.1.15,2013-09-08 00:42:00,
2013-09-07 19:45:00,78.9,71.5,29.79,NNE,15,0.0,0.0,78,0.00,,,0.00,0,Wunderground v.1.15,2013-09-08 00:45:00,
2013-09-07 19:46:00,78.8,71.4,29.79,NNE,15,0.0,0.0,78,0.00,,,0.00,0,Wunderground v.1.15,2013-09-08 00:46:00,
2013-09-07 19:47:00,78.7,71.3,29.79,NNE,15,0.0,0.0,78,0.00,,,0.00,0,Wunderground v.1.15,2013-09-08 00:47:00,
2013-09-07 19:48:00,78.7,71.6,29.79,NNE,15,0.0,0.0,79,0.00,,,0.00,0,Wunderground v.1.15,2013-09-08 00:48:00,
2013-09-07 19:49:00,78.7,71.3,29.79,NNE,15,0.0,0.0,78,0.00,,,0.00,0,Wunderground v.1.15,2013-09-08 00:49:00,
2013-09-07 19:50:00,78.6,71.2,29.79,NNE,15,0.0,0.0,78,0.00,,,0.00,0,Wunderground v.1.15,2013-09-08 00:50:00,
2013-09-07 19:52:00,78.5,71.4,29.79,NNE,15,0.0,0.0,79,0.00,,,0.00,0,Wunderground v.1.15,2013-09-08 00:52:00,
2013-09-07 19:53:00,78.5,71.4,29.79,NNE,15,0.0,0.0,79,0.00,,,0.00,0,Wunderground v.1.15,2013-09-08 00:53:00,
2013-09-07 19:54:00,78.4,71.3,29.79,NNE,15,0.0,0.0,79,0.00,,,0.00,0,Wunderground v.1.15,2013-09-08 00:54:00,
2013-09-07 19:55:00,78.4,71.3,29.79,NNE,15,0.0,0.0,79,0.00,,,0.00,0,Wunderground v.1.15,2013-09-08 00:55:00,
2013-09-07 19:58:00,78.3,71.2,29.78,NNE,15,0.0,0.0,79,0.00,,,0.00,0,Wunderground v.1.15,2013-09-08 00:58:00,
2013-09-07 19:59:00,78.3,71.2,29.79,NNE,15,0.0,0.0,79,0.00,,,0.00,0,Wunderground v.1.15,2013-09-08 00:59:00,
2013-09-07 20:00:00,78.2,71.5,29.78,NNE,15,0.0,0.0,80,0.00,,,0.00,0,Wunderground v.1.15,2013-09-08 01:00:00,
2013-09-07 20:04:00,78.0,71.3,29.79,NNE,15,0.0,0.0,80,0.00,,,0.00,0,Wunderground v.1.15,2013-09-08 01:04:00,
2013-09-07 20:05:00,77.9,71.6,29.79,NNE,15,0.0,0.0,81,0.00,,,0.00,0,Wunderground v.1.15,2013-09-08 01:05:00,
2013-09-07 20:06:00,77.9,71.6,29.79,NNE,15,0.0,0.0,81,0.00,,,0.00,0,Wunderground v.1.15,2013-09-08 01:06:00,
2013-09-07 20:09:00,77.4,71.5,29.79,NNE,15,0.0,0.0,82,0.00,,,0.00,0,Wunderground v.1.15,2013-09-08 01:09:00,
2013-09-07 20:10:00,77.2,71.3,29.79,NNE,15,0.0,0.0,82,0.00,,,0.00,0,Wunderground v.1.15,2013-09-08 01:10:00,
2013-09-07 20:11:00,77.1,71.5,29.79,NNE,15,0.0,0.0,83,0.00,,,0.00,0,Wunderground v.1.15,2013-09-08 01:11:00,
2013-09-07 20:12:00,76.9,71.3,29.79,NNE,15,0.0,0.0,83,0.00,,,0.00,0,Wunderground v.1.15,2013-09-08 01:12:00,
2013-09-07 20:14:00,76.8,71.6,29.79,NNE,15,0.0,0.0,84,0.00,,,0.00,0,Wunderground v.1.15,2013-09-08 01:14:00,
2013-09-07 20:15:00,76.7,71.5,29.79,NNE,15,0.0,0.0,84,0.00,,,0.00,0,Wunderground v.1.15,2013-09-08 01:15:00,
2013-09-07 20:16:00,76.7,71.5,29.79,NNE,15,0.0,0.0,84,0.00,,,0.00,0,Wunderground v.1.15,2013-09-08 01:16:00,
2013-09-07 20:18:00,76.6,71.7,29.79,NNE,15,0.0,0.0,85,0.00,,,0.00,0,Wunderground v.1.15,2013-09-08 01:18:00,
2013-09-07 20:19:00,76.6,71.7,29.79,NNE,15,0.0,0.0,85,0.00,,,0.00,0,Wunderground v.1.15,2013-09-08 01:19:00,
2013-09-07 20:21:00,76.6,71.7,29.79,NNE,15,0.0,0.0,85,0.00,,,0.00,0,Wunderground v.1.15,2013-09-08 01:21:00,
2013-09-07 20:22:00,76.7,71.8,29.79,NNE,15,0.0,0.0,85,0.00,,,0.00,0,Wunderground v.1.15,2013-09-08 01:22:00,
2013-09-07 20:24:00,76.7,71.8,29.79,NNE,15,0.0,0.0,85,0.00,,,0.00,0,Wunderground v.1.15,2013-09-08 01:24:00,
2013-09-07 20:26:00,76.7,71.8,29.79,NNE,15,0.0,0.0,85,0.00,,,0.00,0,Wunderground v.1.15,2013-09-08 01:26:00,
2013-09-07 20:28:00,76.7,71.8,29.79,NNE,15,0.0,0.0,85,0.00,,,0.00,0,Wunderground v.1.15,2013-09-08 01:28:00,
2013-09-07 20:29:00,76.6,71.7,29.79,NNE,15,0.0,0.0,85,0.00,,,0.00,0,Wunderground v.1.15,2013-09-08 01:29:00,
2013-09-07 20:31:00,76.6,71.7,29.79,NNE,15,0.0,0.0,85,0.00,,,0.00,0,Wunderground v.1.15,2013-09-08 01:31:00,
2013-09-07 20:32:00,76.6,71.7,29.79,NNE,15,0.0,0.0,85,0.00,,,0.00,0,Wunderground v.1.15,2013-09-08 01:32:00,
2013-09-07 20:35:00,76.6,71.7,29.80,NNE,15,0.0,0.0,85,0.00,,,0.00,0,Wunderground v.1.15,2013-09-08 01:35:00,
2013-09-07 20:37:00,76.6,71.7,29.79,NNE,15,0.0,0.0,85,0.00,,,0.00,0,Wunderground v.1.15,2013-09-08 01:37:00,
2013-09-07 20:42:00,76.6,71.7,29.79,NNE,15,0.0,0.0,85,0.00,,,0.00,0,Wunderground v.1.15,2013-09-08 01:42:00,
2013-09-07 20:43:00,76.6,71.7,29.79,NNE,15,0.0,0.0,85,0.00,,,0.00,0,Wunderground v.1.15,2013-09-08 01:43:00,
2013-09-07 20:44:00,76.6,71.7,29.80,NNE,15,0.0,0.0,85,0.00,,,0.00,0,Wunderground v.1.15,2013-09-08 01:44:00,
2013-09-07 20:47:00,76.6,71.7,29.80,NNE,15,0.0,0.0,85,0.00,,,0.00,0,Wunderground v.1.15,2013-09-08 01:47:00,
2013-09-07 20:49:00,76.6,71.7,29.80,NNE,15,0.0,0.0,85,0.00,,,0.00,0,Wunderground v.1.15,2013-09-08 01:49:00,
2013-09-07 20:50:00,76.6,71.7,29.80,NNE,15,0.0,0.0,85,0.00,,,0.00,0,Wunderground v.1.15,2013-09-08 01:50:00,
2013-09-07 20:52:00,76.5,72.0,29.80,NNE,15,1.0,1.0,86,0.00,,,0.00,0,Wunderground v.1.15,2013-09-08 01:52:00,
2013-09-07 20:56:00,76.6,71.7,29.80,NNE,15,0.0,1.0,85,0.00,,,0.00,0,Wunderground v.1.15,2013-09-08 01:56:00,
2013-09-07 20:57:00,76.7,71.8,29.80,NNE,15,0.0,1.0,85,0.00,,,0.00,0,Wunderground v.1.15,2013-09-08 01:57:00,
2013-09-07 20:58:00,76.8,71.9,29.80,NNE,15,0.0,1.0,85,0.00,,,0.00,0,Wunderground v.1.15,2013-09-08 01:58:00,
2013-09-07 20:59:00,76.8,71.9,29.80,NNE,15,0.0,1.0,85,0.00,,,0.00,0,Wunderground v.1.15,2013-09-08 01:59:00,
2013-09-07 21:03:00,77.0,71.8,29.80,NNE,15,0.0,0.0,84,0.00,,,0.00,0,Wunderground v.1.15,2013-09-08 02:03:00,
2013-09-07 21:04:00,77.0,71.8,29.80,NNE,15,0.0,0.0,84,0.00,,,0.00,0,Wunderground v.1.15,2013-09-08 02:04:00,
2013-09-07 21:08:00,76.8,72.3,29.80,NNE,15,0.0,0.0,86,0.00,,,0.00,0,Wunderground v.1.15,2013-09-08 02:08:00,
2013-09-07 21:09:00,76.7,72.2,29.80,NNE,15,0.0,0.0,86,0.00,,,0.00,0,Wunderground v.1.15,2013-09-08 02:09:00,
2013-09-07 21:10:00,76.5,72.0,29.80,NNE,15,0.0,0.0,86,0.00,,,0.00,0,Wunderground v.1.15,2013-09-08 02:10:00,
2013-09-07 21:14:00,76.0,71.8,29.80,NNE,15,0.0,0.0,87,0.00,,,0.00,0,Wunderground v.1.15,2013-09-08 02:14:00,
2013-09-07 21:15:00,76.0,71.8,29.80,NNE,15,0.0,0.0,87,0.00,,,0.00,0,Wunderground v.1.15,2013-09-08 02:15:00,
2013-09-07 21:16:00,75.9,71.8,29.80,NNE,15,0.0,0.0,87,0.00,,,0.00,0,Wunderground v.1.15,2013-09-08 02:16:00,
2013-09-07 21:18:00,75.7,71.9,29.80,NNE,15,0.0,0.0,88,0.00,,,0.00,0,Wunderground v.1.15,2013-09-08 02:18:00,
2013-09-07 21:20:00,75.6,71.8,29.80,NNE,15,0.0,0.0,88,0.00,,,0.00,0,Wunderground v.1.15,2013-09-08 02:20:00,
2013-09-07 21:21:00,75.6,71.8,29.80,NNE,15,0.0,0.0,88,0.00,,,0.00,0,Wunderground v.1.15,2013-09-08 02:21:00,
2013-09-07 21:22:00,75.5,71.7,29.80,NNE,15,0.0,0.0,88,0.00,,,0.00,0,Wunderground v.1.15,2013-09-08 02:22:00,
2013-09-07 21:23:00,75.5,71.7,29.80,NNE,15,0.0,0.0,88,0.00,,,0.00,0,Wunderground v.1.15,2013-09-08 02:23:00,
2013-09-07 21:25:00,75.5,71.7,29.80,NNE,15,0.0,0.0,88,0.00,,,0.00,0,Wunderground v.1.15,2013-09-08 02:25:00,
2013-09-07 21:26:00,75.6,71.8,29.80,NNE,15,0.0,0.0,88,0.00,,,0.00,0,Wunderground v.1.15,2013-09-08 02:26:00,
2013-09-07 21:27:00,75.6,71.8,29.80,NNE,15,0.0,0.0,88,0.00,,,0.00,0,Wunderground v.1.15,2013-09-08 02:27:00,
2013-09-07 21:28:00,75.7,71.9,29.79,NNE,15,0.0,0.0,88,0.00,,,0.00,0,Wunderground v.1.15,2013-09-08 02:28:00,
2013-09-07 21:31:00,75.8,72.0,29.80,NNE,15,0.0,0.0,88,0.00,,,0.00,0,Wunderground v.1.15,2013-09-08 02:31:00,
2013-09-07 21:33:00,75.9,71.8,29.79,NNE,15,0.0,0.0,87,0.00,,,0.00,0,Wunderground v.1.15,2013-09-08 02:33:00,
2013-09-07 21:34:00,75.9,71.8,29.79,NNE,15,0.0,0.0,87,0.00,,,0.00,0,Wunderground v.1.15,2013-09-08 02:34:00,
2013-09-07 21:38:00,75.9,71.8,29.80,NNE,15,0.0,0.0,87,0.00,,,0.00,0,Wunderground v.1.15,2013-09-08 02:38:00,
2013-09-07 21:39:00,75.9,71.8,29.80,NNE,15,0.0,0.0,87,0.00,,,0.00,0,Wunderground v.1.15,2013-09-08 02:39:00,
2013-09-07 21:40:00,75.8,71.7,29.80,NNE,15,0.0,0.0,87,0.00,,,0.00,0,Wunderground v.1.15,2013-09-08 02:40:00,
2013-09-07 21:43:00,75.8,71.7,29.80,NNE,15,0.0,0.0,87,0.00,,,0.00,0,Wunderground v.1.15,2013-09-08 02:43:00,
2013-09-07 21:45:00,75.8,71.7,29.80,NNE,15,0.0,0.0,87,0.00,,,0.00,0,Wunderground v.1.15,2013-09-08 02:45:00,
2013-09-07 21:47:00,75.8,71.7,29.80,NNE,15,0.0,0.0,87,0.00,,,0.00,0,Wunderground v.1.15,2013-09-08 02:47:00,
2013-09-07 21:49:00,75.8,71.7,29.80,NNE,15,0.0,0.0,87,0.00,,,0.00,0,Wunderground v.1.15,2013-09-08 02:49:00,
2013-09-07 21:50:00,75.8,72.0,29.80,NNE,15,0.0,0.0,88,0.00,,,0.00,0,Wunderground v.1.15,2013-09-08 02:50:00,
2013-09-07 21:53:00,75.7,71.9,29.80,NNE,15,0.0,0.0,88,0.00,,,0.00,0,Wunderground v.1.15,2013-09-08 02:53:00,
2013-09-07 21:54:00,75.7,71.9,29.80,NNE,15,0.0,0.0,88,0.00,,,0.00,0,Wunderground v.1.15,2013-09-08 02:54:00,
2013-09-07 21:55:00,75.6,71.8,29.80,NNE,15,0.0,0.0,88,0.00,,,0.00,0,Wunderground v.1.15,2013-09-08 02:55:00,
2013-09-07 21:56:00,75.6,71.8,29.80,NNE,15,0.0,0.0,88,0.00,,,0.00,0,Wunderground v.1.15,2013-09-08 02:56:00,
2013-09-07 21:58:00,75.6,71.8,29.80,NNE,15,0.0,0.0,88,0.00,,,0.00,0,Wunderground v.1.15,2013-09-08 02:58:00,
2013-09-07 22:00:00,75.6,71.8,29.80,NNE,15,0.0,0.0,88,0.00,,,0.00,0,Wunderground v.1.15,2013-09-08 03:00:00,
2013-09-07 22:01:00,75.6,71.8,29.80,NNE,15,0.0,0.0,88,0.00,,,0.00,0,Wunderground v.1.15,2013-09-08 03:01:00,
2013-09-07 22:02:00,75.6,71.8,29.80,NNE,15,0.0,0.0,88,0.00,,,0.00,0,Wunderground v.1.15,2013-09-08 03:02:00,
2013-09-07 22:04:00,75.6,71.8,29.80,NNE,15,0.0,0.0,88,0.00,,,0.00,0,Wunderground v.1.15,2013-09-08 03:04:00,
2013-09-07 22:06:00,75.6,71.8,29.80,NNE,15,0.0,0.0,88,0.00,,,0.00,0,Wunderground v.1.15,2013-09-08 03:06:00,
2013-09-07 22:07:00,75.6,71.8,29.80,NNE,15,0.0,0.0,88,0.00,,,0.00,0,Wunderground v.1.15,2013-09-08 03:07:00,
2013-09-07 22:08:00,75.5,71.7,29.80,NNE,15,0.0,0.0,88,0.00,,,0.00,0,Wunderground v.1.15,2013-09-08 03:08:00,
2013-09-07 22:11:00,75.3,71.5,29.80,NNE,15,0.0,0.0,88,0.00,,,0.00,0,Wunderground v.1.15,2013-09-08 03:11:00,
2013-09-07 22:12:00,75.1,71.3,29.80,NNE,15,0.0,0.0,88,0.00,,,0.00,0,Wunderground v.1.15,2013-09-08 03:12:00,
2013-09-07 22:13:00,75.1,71.3,29.80,NNE,15,0.0,0.0,88,0.00,,,0.00,0,Wunderground v.1.15,2013-09-08 03:13:00,
2013-09-07 22:15:00,74.9,71.4,29.80,NNE,15,0.0,0.0,89,0.00,,,0.00,0,Wunderground v.1.15,2013-09-08 03:15:00,
2013-09-07 22:16:00,74.8,71.3,29.80,NNE,15,0.0,0.0,89,0.00,,,0.00,0,Wunderground v.1.15,2013-09-08 03:16:00,
2013-09-07 22:17:00,74.8,71.3,29.80,NNE,15,0.0,0.0,89,0.00,,,0.00,0,Wunderground v.1.15,2013-09-08 03:17:00,
2013-09-07 22:18:00,74.8,71.3,29.80,NNE,15,0.0,0.0,89,0.00,,,0.00,0,Wunderground v.1.15,2013-09-08 03:18:00,
2013-09-07 22:19:00,74.8,71.3,29.80,NNE,15,0.0,0.0,89,0.00,,,0.00,0,Wunderground v.1.15,2013-09-08 03:19:00,
2013-09-07 22:21:00,74.8,71.3,29.80,NNE,15,0.0,0.0,89,0.00,,,0.00,0,Wunderground v.1.15,2013-09-08 03:21:00,
2013-09-07 22:22:00,74.8,71.3,29.80,NNE,15,0.0,0.0,89,0.00,,,0.00,0,Wunderground v.1.15,2013-09-08 03:22:00,
2013-09-07 22:24:00,74.8,71.3,29.80,NNE,15,0.0,0.0,89,0.00,,,0.00,0,Wunderground v.1.15,2013-09-08 03:24:00,
2013-09-07 22:25:00,74.8,71.3,29.80,NNE,15,0.0,0.0,89,0.00,,,0.00,0,Wunderground v.1.15,2013-09-08 03:25:00,
2013-09-07 22:26:00,74.8,71.3,29.80,NNE,15,0.0,0.0,89,0.00,,,0.00,0,Wunderground v.1.15,2013-09-08 03:26:00,
2013-09-07 22:28:00,74.8,71.3,29.80,NNE,15,0.0,0.0,89,0.00,,,0.00,0,Wunderground v.1.15,2013-09-08 03:28:00,
2013-09-07 22:30:00,74.6,71.1,29.80,NNE,15,0.0,0.0,89,0.00,,,0.00,0,Wunderground v.1.15,2013-09-08 03:30:00,
2013-09-07 22:32:00,74.5,71.0,29.80,NNE,15,0.0,0.0,89,0.00,,,0.00,0,Wunderground v.1.15,2013-09-08 03:32:00,
2013-09-07 22:33:00,74.4,70.9,29.80,NNE,15,0.0,0.0,89,0.00,,,0.00,0,Wunderground v.1.15,2013-09-08 03:33:00,
2013-09-07 22:35:00,74.2,71.1,29.80,NNE,15,0.0,0.0,90,0.00,,,0.00,0,Wunderground v.1.15,2013-09-08 03:35:00,
2013-09-07 22:37:00,74.2,71.1,29.80,NNE,15,0.0,0.0,90,0.00,,,0.00,0,Wunderground v.1.15,2013-09-08 03:37:00,
2013-09-07 22:39:00,74.1,71.0,29.80,NNE,15,0.0,0.0,90,0.00,,,0.00,0,Wunderground v.1.15,2013-09-08 03:39:00,
2013-09-07 22:40:00,74.1,71.0,29.80,NNE,15,0.0,0.0,90,0.00,,,0.00,0,Wunderground v.1.15,2013-09-08 03:40:00,
2013-09-07 22:43:00,74.0,70.9,29.80,NNE,15,0.0,0.0,90,0.00,,,0.00,0,Wunderground v.1.15,2013-09-08 03:43:00,
2013-09-07 22:44:00,74.0,70.9,29.80,NNE,15,0.0,0.0,90,0.00,,,0.00,0,Wunderground v.1.15,2013-09-08 03:44:00,
2013-09-07 22:45:00,74.0,70.9,29.80,NNE,15,0.0,0.0,90,0.00,,,0.00,0,Wunderground v.1.15,2013-09-08 03:45:00,
2013-09-07 22:46:00,74.0,70.9,29.80,NNE,15,0.0,0.0,90,0.00,,,0.00,0,Wunderground v.1.15,2013-09-08 03:46:00,
2013-09-07 22:49:00,74.1,71.3,29.81,NNE,15,0.0,0.0,91,0.00,,,0.00,0,Wunderground v.1.15,2013-09-08 03:49:00,
2013-09-07 22:50:00,74.1,71.0,29.81,NNE,15,0.0,0.0,90,0.00,,,0.00,0,Wunderground v.1.15,2013-09-08 03:50:00,
2013-09-07 22:51:00,74.1,71.0,29.81,NNE,15,0.0,0.0,90,0.00,,,0.00,0,Wunderground v.1.15,2013-09-08 03:51:00,
2013-09-07 22:54:00,73.9,70.8,29.81,NNE,15,0.0,0.0,90,0.00,,,0.00,0,Wunderground v.1.15,2013-09-08 03:54:00,
2013-09-07 22:57:00,73.8,70.7,29.81,NNE,15,0.0,0.0,90,0.00,,,0.00,0,Wunderground v.1.15,2013-09-08 03:57:00,
2013-09-07 22:58:00,73.8,70.7,29.80,NNE,15,0.0,0.0,90,0.00,,,0.00,0,Wunderground v.1.15,2013-09-08 03:58:00,
2013-09-07 22:59:00,73.7,70.6,29.80,NNE,15,0.0,0.0,90,0.00,,,0.00,0,Wunderground v.1.15,2013-09-08 03:59:00,
2013-09-07 23:01:00,73.7,70.9,29.80,NNE,15,0.0,0.0,91,0.00,,,0.00,0,Wunderground v.1.15,2013-09-08 04:01:00,
2013-09-07 23:02:00,73.6,70.8,29.80,NNE,15,0.0,0.0,91,0.00,,,0.00,0,Wunderground v.1.15,2013-09-08 04:02:00,
2013-09-07 23:06:00,73.6,70.8,29.81,NNE,15,0.0,0.0,91,0.00,,,0.00,0,Wunderground v.1.15,2013-09-08 04:06:00,
2013-09-07 23:07:00,73.6,70.8,29.81,NNE,15,0.0,0.0,91,0.00,,,0.00,0,Wunderground v.1.15,2013-09-08 04:07:00,
2013-09-07 23:10:00,73.7,70.9,29.80,NNE,15,0.0,0.0,91,0.00,,,0.00,0,Wunderground v.1.15,2013-09-08 04:10:00,
2013-09-07 23:11:00,73.7,70.9,29.80,NNE,15,0.0,0.0,91,0.00,,,0.00,0,Wunderground v.1.15,2013-09-08 04:11:00,
2013-09-07 23:13:00,73.7,70.9,29.80,NNE,15,0.0,0.0,91,0.00,,,0.00,0,Wunderground v.1.15,2013-09-08 04:13:00,
2013-09-07 23:15:00,73.8,71.0,29.80,NNE,15,0.0,0.0,91,0.00,,,0.00,0,Wunderground v.1.15,2013-09-08 04:15:00,
2013-09-07 23:18:00,73.8,71.0,29.80,NNE,15,0.0,0.0,91,0.00,,,0.00,0,Wunderground v.1.15,2013-09-08 04:18:00,
2013-09-07 23:19:00,73.8,71.0,29.80,NNE,15,0.0,0.0,91,0.00,,,0.00,0,Wunderground v.1.15,2013-09-08 04:19:00,
2013-09-07 23:20:00,73.9,71.1,29.80,NNE,15,0.0,0.0,91,0.00,,,0.00,0,Wunderground v.1.15,2013-09-08 04:20:00,
2013-09-07 23:24:00,74.2,71.4,29.80,NNE,15,1.0,2.0,91,0.00,,,0.00,0,Wunderground v.1.15,2013-09-08 04:24:00,
2013-09-07 23:25:00,74.2,71.4,29.80,NNE,15,0.0,2.0,91,0.00,,,0.00,0,Wunderground v.1.15,2013-09-08 04:25:00,
2013-09-07 23:27:00,74.4,71.6,29.80,NNE,15,0.0,3.0,91,0.00,,,0.00,0,Wunderground v.1.15,2013-09-08 04:27:00,
2013-09-07 23:28:00,74.4,71.6,29.80,NNE,15,0.0,3.0,91,0.00,,,0.00,0,Wunderground v.1.15,2013-09-08 04:28:00,
2013-09-07 23:31:00,74.6,71.5,29.80,NNE,15,0.0,2.0,90,0.00,,,0.00,0,Wunderground v.1.15,2013-09-08 04:31:00,
2013-09-07 23:32:00,74.6,71.5,29.80,NNE,15,0.0,2.0,90,0.00,,,0.00,0,Wunderground v.1.15,2013-09-08 04:32:00,
2013-09-07 23:36:00,74.8,71.7,29.80,NNE,15,2.0,5.0,90,0.00,,,0.00,0,Wunderground v.1.15,2013-09-08 04:36:00,
2013-09-07 23:37:00,74.8,71.7,29.80,NNE,15,0.0,5.0,90,0.00,,,0.00,0,Wunderground v.1.15,2013-09-08 04:37:00,
2013-09-07 23:38:00,74.9,71.8,29.80,NNE,15,1.0,5.0,90,0.00,,,0.00,0,Wunderground v.1.15,2013-09-08 04:38:00,
2013-09-07 23:39:00,74.9,71.8,29.80,NNE,15,0.0,5.0,90,0.00,,,0.00,0,Wunderground v.1.15,2013-09-08 04:39:00,
2013-09-07 23:42:00,75.1,71.6,29.80,NNE,15,0.0,1.0,89,0.00,,,0.00,0,Wunderground v.1.15,2013-09-08 04:42:00,
2013-09-07 23:43:00,75.1,71.6,29.80,NNE,15,0.0,1.0,89,0.00,,,0.00,0,Wunderground v.1.15,2013-09-08 04:43:00,
2013-09-07 23:44:00,75.2,71.7,29.80,NNE,15,0.0,1.0,89,0.00,,,0.00,0,Wunderground v.1.15,2013-09-08 04:44:00,
2013-09-07 23:45:00,75.1,71.6,29.80,NNE,15,0.0,1.0,89,0.00,,,0.00,0,Wunderground v.1.15,2013-09-08 04:45:00,
2013-09-07 23:47:00,75.2,71.7,29.80,NNE,15,0.0,1.0,89,0.00,,,0.00,0,Wunderground v.1.15,2013-09-08 04:47:00,
2013-09-07 23:48:00,75.2,71.7,29.80,NNE,15,0.0,1.0,89,0.00,,,0.00,0,Wunderground v.1.15,2013-09-08 04:48:00,
2013-09-07 23:49:00,75.2,71.7,29.80,NNE,15,0.0,1.0,89,0.00,,,0.00,0,Wunderground v.1.15,2013-09-08 04:49:00,
2013-09-07 23:50:00,75.2,71.7,29.80,NNE,15,0.0,1.0,89,0.00,,,0.00,0,Wunderground v.1.15,2013-09-08 04:50:00,
2013-09-07 23:52:00,75.1,71.6,29.80,NNE,15,0.0,0.0,89,0.00,,,0.00,0,Wunderground v.1.15,2013-09-08 04:52:00,
2013-09-07 23:53:00,75.1,71.6,29.80,NNE,15,0.0,0.0,89,0.00,,,0.00,0,Wunderground v.1.15,2013-09-08 04:53:00,
2013-09-07 23:57:00,74.8,71.3,29.80,NNE,15,0.0,0.0,89,0.00,,,0.00,0,Wunderground v.1.15,2013-09-08 04:57:00,
2013-09-07 23:58:00,74.6,71.1,29.80,NNE,15,0.0,0.0,89,0.00,,,0.00,0,Wunderground v.1.15,2013-09-08 04:58:00,
2013-09-07 23:59:00,74.6,71.1,29.80,NNE,15,0.0,0.0,89,0.00,,,0.00,0,Wunderground v.1.15,2013-09-08 04:59:00,